GFSMA_850_rhum_051.txt.gz
RH
48 48 33 31 38 43 58 68 65 71 73 74 68 65 69 66 63 60 60 56 50 47 48 50 54 54 55 51 48 38 18 19 14 12 14 16 17 16 16 16 18 20 23
62 65 64 53 57 66 70 75 79 81 81 81 81 79 80 79 79 80 79 76 69 60 54 51 52 55 62 62 63 59 46 24 19 15 15 16 16 17 17 17 18 20 23
76 77 75 74 74 77 79 80 81 82 82 83 82 86 88 88 86 86 87 88 87 82 76 67 58 54 59 68 88 92 86 69 43 21 18 17 17 17 17 17 18 20 24
83 85 83 80 85 85 84 83 86 88 86 86 88 89 92 94 92 88 89 83 77 77 82 84 81 70 59 75 91 99 99 100 86 52 42 25 20 21 17 17 18 23 24
84 86 85 85 90 91 92 93 91 93 91 91 92 93 89 87 85 84 85 80 79 82 84 86 85 81 71 62 68 97 99 98 98 97 66 55 33 24 23 19 20 20 27
84 86 89 91 91 93 94 93 92 90 88 86 84 82 81 72 81 83 81 85 84 83 84 88 87 80 77 70 64 73 99 96 93 96 96 67 52 36 35 39 30 30 38
87 90 92 94 96 92 83 79 80 83 82 80 86 73 71 78 79 76 78 76 77 77 79 80 82 81 76 71 68 65 70 93 98 92 93 92 85 61 79 79 91 85 73
83 84 80 76 84 91 91 84 87 88 86 84 89 97 95 82 75 77 79 77 75 76 80 83 79 74 73 70 67 63 69 86 94 99 99 96 89 88 67 97 97 98 98
88 89 86 86 88 90 89 88 93 85 80 86 81 92 93 81 82 79 81 80 77 79 84 84 83 80 82 83 73 64 69 76 85 90 99 100 100 97 86 91 97 97 98
55 55 54 53 51 51 51 52 53 57 70 83 92 92 93 98 100 96 95 88 86 88 78 78 78 73 75 81 87 86 76 84 87 91 81 80 96 99 100 92 88 98 97
37 38 37 37 37 37 36 37 39 44 59 93 85 88 88 80 84 100 96 87 97 73 82 80 76 74 81 82 85 84 88 96 89 90 94 96 94 88 96 96 98 97 88
31 32 31 31 30 30 30 32 38 41 75 97 90 95 93 88 87 100 98 97 98 96 79 83 82 80 78 80 79 83 85 88 93 97 93 99 89 83 88 90 99 97 99
36 40 40 41 41 40 38 38 42 68 76 93 95 95 88 84 91 99 99 97 97 98 76 68 78 84 83 81 78 79 76 79 81 88 89 99 99 94 84 96 99 100 99
40 42 46 48 51 57 67 68 67 97 82 97 98 89 76 82 92 84 97 98 95 97 88 77 86 90 79 77 88 87 77 84 83 85 98 100 100 99 97 100 99 99 99
50 52 53 55 62 78 89 87 83 86 91 94 84 80 83 80 70 94 99 98 100 100 98 91 93 100 99 97 99 92 85 84 89 96 99 100 100 100 100 99 99 100 100
60 62 64 67 72 80 90 90 81 79 73 67 60 54 56 68 71 86 86 97 100 99 98 100 100 100 96 97 98 92 86 92 99 94 100 98 100 99 100 100 100 100 96
70 72 75 80 84 89 90 86 78 72 66 61 62 63 66 66 66 66 72 91 99 99 99 99 99 98 96 95 93 88 86 99 100 100 100 100 98 98 98 99 99 97 92
77 78 82 86 88 88 86 83 79 75 73 73 73 71 70 71 74 77 81 90 100 98 99 99 94 92 92 91 92 94 92 91 90 95 99 96 99 100 98 97 93 98 99
82 82 85 86 86 87 82 79 77 77 78 76 76 76 77 77 78 79 82 91 99 99 100 96 92 93 92 89 86 86 87 89 91 89 94 91 89 92 95 97 98 99 99
98 99 94 93 91 86 83 81 78 79 80 81 81 80 77 79 79 81 83 87 95 99 100 96 94 100 99 92 89 88 87 87 87 90 91 90 90 91 92 91 91 91 94
98 100 100 93 89 84 80 77 76 78 81 83 83 81 80 82 81 83 86 89 96 99 100 100 99 98 94 92 90 87 87 84 79 76 75 73 68 61 52 48 44 41 41
100 100 96 87 81 78 74 75 78 80 82 82 83 81 84 86 87 84 83 83 83 84 85 90 92 92 84 74 57 43 36 33 34 31 28 26 26 20 18 17 16 14 14
99 92 88 83 79 74 68 67 70 67 65 63 56 61 63 63 65 55 49 33 21 16 15 17 21 22 22 25 27 28 30 32 31 30 26 16 17 18 19 21 24 27 30
96 92 85 76 54 23 12 11 10 11 10 11 10 12 12 12 11 14 13 14 15 16 20 20 20 22 24 28 28 30 35 33 27 28 25 25 33 44 46 44 41 42 42
91 82 66 22 12 10 10 9 8 8 9 9 10 10 11 12 13 11 13 14 15 17 18 18 19 21 26 29 27 30 33 29 27 33 47 54 52 48 47 48 49 48 49
78 30 14 10 9 9 8 8 8 10 11 11 11 13 14 14 15 14 14 17 18 18 20 22 21 20 20 21 22 24 27 30 42 54 57 60 59 63 60 56 54 55 55

GFSMA_850_rhum_054.txt.gz
RH
50 48 34 30 33 38 44 68 68 72 74 74 75 73 74 76 76 77 77 74 69 59 51 50 55 53 55 57 54 53 51 32 21 16 14 15 16 16 16 16 16 17 18
59 63 65 48 44 57 65 69 79 79 79 80 80 82 82 80 79 80 80 82 83 84 75 66 58 56 67 83 83 78 66 61 40 21 15 16 17 18 19 19 19 22 22
68 72 74 74 73 73 74 77 80 80 80 81 80 83 84 84 83 81 81 81 83 78 79 80 82 75 65 82 88 94 94 93 82 62 28 18 18 19 20 21 23 27 37
76 80 82 81 83 85 85 84 84 84 86 88 89 97 99 91 84 84 83 79 77 78 80 82 87 86 78 77 81 85 90 99 99 97 83 45 20 19 20 19 23 30 42
78 81 84 84 88 88 90 91 92 94 94 98 99 93 92 90 80 74 74 79 78 79 83 86 86 90 84 78 74 82 97 95 92 93 94 87 63 25 22 22 21 30 34
83 87 87 88 92 92 90 91 92 94 89 91 97 84 76 77 69 72 77 74 72 73 78 84 90 87 85 80 74 74 90 95 94 88 88 88 87 74 28 28 31 30 44
87 86 84 84 89 91 93 95 93 88 84 85 85 82 92 92 93 88 74 72 73 76 78 79 81 81 80 77 75 71 72 87 94 98 96 92 92 88 79 52 71 76 93
85 85 82 80 81 81 78 85 93 92 87 89 95 98 92 71 74 73 74 74 73 80 77 79 82 82 77 81 79 73 68 71 88 96 99 99 99 99 91 87 76 91 96
70 73 77 81 87 91 85 89 91 91 89 88 74 96 94 65 77 82 82 77 78 82 79 79 81 79 83 81 77 80 72 67 72 72 86 97 98 100 98 100 98 92 66
48 50 53 58 58 57 53 50 47 51 60 71 69 78 98 99 98 96 91 86 87 84 84 81 79 76 81 78 80 84 83 85 80 75 83 89 94 94 92 82 89 98 95
32 33 37 38 38 37 36 33 34 35 39 45 61 99 96 92 100 97 99 90 93 85 91 80 77 79 80 77 74 78 78 81 84 90 88 95 100 99 92 87 89 96 98
30 30 30 31 31 30 30 31 32 32 37 46 58 100 98 94 96 98 93 89 90 86 91 88 74 79 83 82 82 80 80 78 77 83 89 97 99 99 95 90 94 97 99
37 39 39 40 40 41 42 43 43 41 43 68 71 99 100 100 98 98 99 99 92 96 93 98 80 72 72 85 82 77 76 73 71 66 70 79 99 92 100 96 91 86 98
40 40 41 42 44 47 52 60 64 62 64 98 100 100 100 100 100 99 99 99 98 98 88 99 88 85 77 75 74 69 68 73 72 74 77 78 83 96 99 100 99 94 100
46 46 48 49 51 57 70 90 90 90 95 97 96 100 100 96 98 94 96 96 98 96 92 94 97 89 99 98 83 85 82 79 76 71 79 90 99 99 99 100 98 98 99
55 56 58 61 64 70 77 86 89 84 78 82 87 87 80 70 61 61 74 97 99 98 96 98 95 96 99 97 95 91 84 79 79 86 96 100 100 96 100 100 100 99 98
64 65 66 71 78 84 88 86 86 80 73 68 62 61 60 60 64 66 73 78 85 99 98 96 97 96 96 94 91 89 86 81 86 98 99 100 100 99 99 99 99 99 100
73 74 75 78 81 82 84 83 79 76 74 70 69 69 70 70 72 76 78 81 88 99 99 98 98 94 90 89 86 84 84 83 84 99 98 99 99 96 93 86 100 99 98
83 81 80 83 83 82 82 81 77 75 74 73 72 71 74 75 77 79 81 84 93 99 99 100 97 96 95 92 87 84 82 80 83 86 83 86 87 83 80 82 83 84 82
95 98 97 91 87 87 85 81 78 77 76 76 77 77 77 76 76 79 82 81 83 94 99 98 98 97 99 92 87 84 85 82 80 81 83 85 85 85 87 88 88 89 92
98 98 98 100 96 91 85 81 77 76 77 77 78 77 76 75 75 76 77 78 85 91 97 99 100 99 96 95 89 81 70 57 48 45 47 48 52 51 46 48 52 55 60
99 100 100 100 93 85 80 78 79 79 82 83 80 78 77 71 70 71 71 73 78 79 80 82 86 87 75 51 29 26 24 22 40 24 18 17 15 14 15 14 14 15 16
100 100 99 89 85 82 74 74 77 78 73 66 58 52 50 49 49 36 25 16 13 13 13 15 22 24 27 23 23 26 26 28 50 38 17 17 16 16 17 17 17 18 19
100 98 93 86 77 62 29 16 14 10 8 8 9 10 12 14 13 13 13 15 15 17 16 16 17 21 23 24 23 24 28 28 31 40 21 31 42 43 45 42 38 39 40
99 95 88 62 22 10 7 6 6 6 6 7 8 8 11 13 12 13 14 17 19 18 17 16 17 17 16 16 17 24 32 34 46 52 44 50 56 46 46 46 47 45 46
95 89 56 19 12 9 7 7 8 8 9 9 9 12 12 12 14 12 16 20 19 20 21 21 20 18 17 18 19 21 23 27 40 62 51 55 55 58 57 56 52 52 54

GFSMA_850_rhum_057.txt.gz
RH
56 59 71 71 74 78 82 84 92 88 90 91 91 90 84 81 78 73 74 72 76 74 70 60 56 67 66 65 65 61 56 52 50 24 15 14 16 17 17 18 20 20 18
83 70 85 76 72 77 85 88 91 94 94 92 92 92 93 92 80 77 78 78 73 78 78 78 75 71 70 86 86 87 80 68 60 56 31 16 16 17 17 18 18 22 23
91 87 93 93 91 85 88 91 94 95 96 97 96 94 95 95 95 94 93 88 81 73 73 75 77 80 80 76 86 89 90 87 88 83 68 48 20 18 18 19 21 24 29
75 95 98 98 97 97 96 96 97 96 95 94 94 93 90 90 91 92 94 96 96 86 81 77 81 84 86 85 82 90 92 91 86 91 92 84 78 38 18 18 19 25 29
80 83 97 98 97 98 99 99 100 98 98 98 96 94 95 91 91 92 94 94 95 97 80 82 83 86 90 92 85 78 88 92 88 86 86 84 84 82 72 23 20 23 31
97 97 98 99 97 99 100 99 98 97 100 99 97 91 90 89 87 90 94 92 85 88 82 81 84 84 84 84 86 80 75 85 96 97 90 90 92 85 86 81 41 26 28
98 98 96 99 100 100 100 100 100 100 96 99 99 79 84 90 83 89 84 83 81 81 70 78 78 80 83 82 80 78 74 73 82 91 98 98 93 93 96 92 86 75 43
100 100 100 100 99 100 96 97 100 100 99 99 98 99 97 72 68 77 74 73 78 78 81 77 80 83 85 84 86 84 83 74 80 85 96 99 98 100 100 99 95 88 85
78 78 80 83 85 95 90 88 96 99 98 98 98 99 91 70 72 74 81 86 84 83 89 85 85 88 81 79 83 79 74 75 76 70 73 82 94 94 97 95 97 90 86
62 57 52 47 45 47 47 48 48 48 51 77 97 99 99 98 92 87 85 86 87 86 85 90 95 90 82 81 84 77 77 82 83 81 79 75 80 96 93 99 94 84 86
35 33 31 29 30 33 36 38 37 36 36 39 79 99 97 96 99 99 97 80 87 83 87 94 96 87 71 82 82 79 74 76 76 76 77 80 80 96 96 99 96 93 88
28 28 27 27 28 29 30 29 31 33 38 48 52 98 87 84 97 99 97 95 89 84 94 93 98 77 66 68 68 80 78 68 70 72 70 71 81 98 90 96 99 90 86
31 31 30 32 34 36 36 37 40 43 44 51 79 99 97 87 92 100 98 95 92 94 92 91 93 83 80 75 69 71 68 64 62 63 62 58 58 61 73 84 90 98 95
38 38 39 39 39 39 43 46 67 71 72 77 82 94 98 99 98 100 100 98 100 95 89 86 90 96 86 82 69 71 64 59 68 67 68 65 68 68 70 82 92 91 87
46 47 47 47 47 50 54 61 84 92 94 97 96 94 89 84 100 100 98 99 99 94 86 88 93 96 89 87 80 79 74 76 74 71 64 67 84 96 91 98 100 90 90
54 56 57 57 58 61 66 72 85 92 91 97 100 99 98 100 98 85 78 82 84 91 95 92 89 93 92 92 87 84 83 77 81 81 90 98 100 99 99 100 100 100 100
60 63 65 67 69 72 78 83 88 87 87 79 76 75 70 70 64 66 68 72 73 81 94 97 94 91 93 86 86 84 82 80 84 94 99 100 99 99 98 100 100 99 100
62 68 72 76 80 80 83 89 83 84 81 80 75 75 73 74 73 73 74 72 74 79 89 97 99 98 91 85 84 83 82 82 80 83 100 98 98 97 92 87 92 93 94
72 76 80 82 82 85 88 89 89 86 84 80 78 78 76 75 72 73 75 77 78 88 100 99 99 95 87 87 87 84 82 81 79 81 85 85 92 92 91 87 84 82 83
89 90 90 92 92 88 90 92 90 85 82 79 78 78 77 77 76 74 76 81 85 94 99 100 98 97 98 84 86 83 83 81 78 78 79 80 82 84 84 84 84 83 82
93 94 97 98 99 98 94 90 86 82 80 79 79 78 78 77 76 78 82 83 90 90 92 98 100 100 98 99 90 77 55 36 34 21 21 21 21 24 27 32 40 48 54
92 94 98 99 99 98 90 85 80 77 78 79 79 80 78 70 67 65 70 72 78 78 76 82 85 93 96 67 46 31 23 19 30 40 19 13 12 12 11 11 11 11 11
96 99 100 99 96 86 79 79 78 78 79 80 74 63 51 45 32 22 16 10 9 11 12 14 22 49 44 35 24 22 23 24 36 26 16 12 17 15 18 18 16 18 18
99 99 100 94 87 81 73 74 69 49 30 22 19 17 15 10 9 9 8 9 9 10 12 13 15 18 20 21 23 26 23 21 22 47 24 24 34 34 36 37 34 37 36
99 100 100 89 82 57 14 8 8 10 9 9 10 10 9 9 9 11 10 11 11 14 13 13 13 14 14 14 16 19 20 24 24 55 42 44 44 39 40 43 43 44 43
100 100 99 81 32 15 8 7 8 9 10 10 10 10 10 10 9 9 10 10 15 21 16 15 13 13 13 13 15 16 18 20 31 53 62 54 48 52 49 62 50 50 52

GFSMA_850_rhum_060.txt.gz
RH
51 36 51 58 50 59 70 76 76 81 87 90 90 87 86 80 78 78 71 68 68 75 77 78 75 69 67 70 76 76 76 72 66 54 45 21 14 14 16 16 17 18 18
69 53 64 59 56 57 61 72 78 93 91 91 93 93 91 91 91 83 84 82 80 75 75 80 77 76 76 77 86 86 83 82 77 72 66 54 26 15 15 16 18 20 20
83 81 80 91 81 72 72 83 86 81 80 78 80 86 90 89 89 84 84 90 94 94 84 78 80 86 85 85 84 88 92 87 85 83 76 75 68 57 23 17 19 22 24
72 84 84 87 91 97 91 82 82 90 94 95 88 85 87 83 87 92 87 93 96 96 98 93 88 87 91 92 90 87 89 93 91 90 89 85 80 78 72 42 20 22 25
81 83 88 94 96 92 95 98 98 97 96 92 94 93 90 93 79 72 70 69 74 92 92 97 85 86 90 94 98 94 87 85 94 93 94 95 88 84 82 80 62 24 22
92 92 92 97 97 98 97 98 98 94 95 94 97 100 89 81 84 73 63 74 89 86 85 81 74 79 83 86 86 85 85 80 86 92 98 98 100 99 92 88 83 75 45
99 100 95 99 99 96 97 97 95 99 98 99 100 100 99 86 76 70 80 83 84 84 76 79 82 84 84 86 86 83 81 78 76 90 88 95 98 98 100 99 93 84 76
99 97 98 98 94 96 98 98 99 98 96 94 95 94 89 83 66 63 79 84 75 73 79 81 85 88 86 87 86 84 82 81 76 76 82 89 92 93 94 99 99 94 77
95 89 87 90 91 99 99 96 95 97 97 97 95 98 87 82 82 78 79 78 78 81 88 89 87 84 83 84 81 79 76 77 73 69 73 74 76 88 88 91 98 90 94
77 80 72 59 50 43 37 35 37 42 48 57 74 85 98 98 84 79 77 82 78 86 82 83 90 93 81 74 68 76 82 77 68 70 80 80 78 77 91 92 98 97 95
57 40 36 33 30 28 29 33 37 38 39 42 52 74 97 95 96 92 86 81 84 76 83 85 90 99 91 70 65 72 75 76 73 72 66 67 68 75 95 91 96 99 99
32 30 28 28 28 28 30 30 32 35 38 44 73 95 97 95 86 85 88 89 86 77 86 85 88 92 84 71 70 68 59 65 64 60 58 60 59 60 62 72 90 84 96
31 30 30 30 32 34 36 38 38 38 42 48 47 63 82 92 95 92 93 92 100 94 95 87 89 88 91 87 79 72 62 62 56 49 53 56 57 55 51 54 66 78 74
33 35 37 40 42 42 42 43 46 47 63 87 90 94 89 90 95 98 99 100 99 98 94 92 89 88 90 84 79 68 68 65 60 61 68 66 63 63 61 63 75 76 84
41 43 44 45 48 49 50 50 54 57 95 99 98 97 99 99 100 95 98 96 100 99 91 93 92 89 92 90 85 76 71 73 73 67 63 68 83 97 100 97 99 96 90
46 48 51 53 56 57 60 64 71 80 95 99 99 99 100 97 97 94 100 96 79 97 99 88 88 93 93 88 83 77 79 79 75 69 76 91 99 98 94 100 100 99 98
50 48 49 54 62 67 71 78 81 89 96 92 95 100 99 99 98 89 79 71 75 81 86 89 90 92 90 86 83 81 81 79 76 76 85 100 98 96 95 90 100 100 100
55 51 57 63 69 71 77 90 84 86 93 92 86 84 78 80 78 75 77 75 76 73 81 84 88 94 92 86 86 84 83 79 77 76 83 97 98 98 94 88 86 89 92
56 59 63 73 79 79 82 84 91 89 90 89 87 82 83 78 76 76 77 76 78 81 87 97 98 100 89 88 90 89 84 80 78 76 80 81 84 88 91 90 87 86 84
63 70 80 85 89 89 88 90 95 95 93 89 86 83 81 80 77 79 78 78 79 84 94 100 100 99 99 88 85 81 83 76 70 60 51 49 61 72 79 79 79 80 81
82 88 90 92 97 98 100 99 100 97 92 90 86 84 85 82 78 76 74 74 76 78 83 90 99 99 98 91 64 51 34 21 20 15 18 24 16 15 18 17 19 22 26
88 90 92 93 96 98 100 100 96 93 88 86 84 84 86 83 80 72 66 67 62 67 69 70 66 61 59 55 40 21 14 12 14 18 17 13 10 12 12 12 11 10 9
90 90 94 98 100 100 96 90 88 86 89 91 90 88 77 63 44 26 18 13 11 10 10 14 16 24 31 21 22 16 12 13 14 14 14 12 13 17 18 22 22 27 25
89 96 98 100 100 94 90 88 85 87 84 73 53 35 23 17 13 11 10 10 10 9 12 14 12 15 15 15 15 13 12 12 15 18 21 22 26 29 33 34 34 37 37
97 98 98 100 98 89 80 66 41 21 17 11 10 9 9 10 11 13 11 11 12 13 16 12 11 11 11 11 11 11 10 11 13 28 29 37 34 34 36 39 43 43 42
99 99 99 100 94 66 20 10 8 7 9 10 10 11 12 10 10 10 10 12 15 15 16 16 13 13 12 12 11 10 11 15 22 36 49 45 41 43 43 41 47 47 47

GFSMA_850_rhum_063.txt.gz
RH
43 35 35 42 39 36 39 47 52 67 71 81 82 83 82 81 78 77 76 73 75 81 81 79 81 79 74 76 79 81 81 78 76 75 73 62 41 19 14 15 17 18 19
59 48 46 51 48 44 47 54 67 80 90 87 89 92 87 84 83 84 79 82 84 91 92 93 88 85 87 83 86 92 89 85 84 84 79 76 70 56 26 16 17 19 22
62 56 53 65 72 63 61 66 75 81 85 84 84 84 88 81 82 83 85 84 90 88 91 96 95 94 90 92 90 88 93 99 98 90 86 83 82 78 72 35 18 18 20
64 64 66 77 81 81 81 83 83 84 90 94 90 88 82 83 82 83 87 88 95 94 86 82 90 97 89 90 86 86 91 96 100 97 96 94 87 86 81 76 68 28 19
64 70 74 82 90 93 95 96 96 96 92 89 88 90 93 93 89 85 80 84 88 82 80 84 85 85 81 85 89 86 86 94 95 94 99 100 99 94 85 83 81 67 51
82 74 80 89 97 97 96 95 94 92 94 87 90 89 93 97 92 85 81 85 88 89 88 84 77 76 81 81 83 82 82 83 84 91 93 96 96 99 99 84 82 84 77
96 97 98 97 95 97 96 97 96 94 90 89 88 86 87 82 82 68 63 92 87 83 86 81 78 83 80 82 84 84 84 84 82 79 83 92 91 97 100 99 96 90 87
98 97 98 98 98 97 98 98 98 96 94 90 91 86 82 75 77 66 67 88 91 85 78 75 74 70 77 84 87 86 84 80 75 79 75 80 83 89 90 94 99 94 86
99 97 98 100 99 97 96 97 95 95 95 85 86 89 87 81 81 78 90 87 82 83 78 80 72 74 81 85 74 70 70 77 80 77 71 67 72 75 76 84 92 95 90
92 86 87 88 95 84 61 44 39 36 42 42 52 61 87 94 91 82 77 80 82 81 82 74 81 80 83 88 80 58 62 73 77 74 64 65 73 82 92 98 86 93 99
85 80 74 48 38 34 30 29 30 30 35 39 43 46 59 75 94 87 83 81 84 88 88 83 85 85 82 80 74 63 60 59 57 61 63 57 59 69 94 80 84 87 98
82 47 33 30 29 29 29 29 31 34 36 42 43 56 86 82 76 96 91 91 82 94 95 95 89 83 87 86 80 72 65 61 57 53 52 51 52 49 48 46 56 71 86
36 30 29 30 30 31 32 34 37 38 40 44 49 58 83 90 88 95 100 100 99 98 99 94 90 89 90 88 85 80 72 63 65 90 81 72 57 56 54 49 49 49 58
29 33 31 30 33 37 41 43 43 44 45 52 70 98 97 97 96 99 89 97 99 99 100 96 95 91 93 92 87 81 74 69 72 71 64 61 59 61 66 68 74 86 79
35 35 40 39 42 46 49 51 50 48 50 64 97 99 99 92 93 93 95 99 100 100 95 99 99 94 95 93 93 83 76 76 78 75 68 63 73 97 99 99 98 82 87
40 39 44 44 48 49 53 57 57 57 59 83 98 98 97 93 97 99 91 98 98 100 98 96 95 97 96 98 90 81 77 80 79 76 73 73 87 97 97 98 95 91 94
38 40 43 47 51 51 56 68 68 71 76 84 96 99 98 99 95 94 93 94 95 82 98 98 100 98 99 97 83 83 84 81 78 76 75 75 91 95 92 87 89 98 100
46 50 46 48 49 57 62 73 80 77 85 96 96 98 93 90 91 90 80 82 75 70 81 92 94 99 98 87 91 84 86 80 77 73 70 76 80 86 93 91 86 88 95
51 53 51 51 58 66 75 79 87 92 91 90 90 88 85 84 84 84 81 78 77 78 79 83 89 98 94 91 88 85 86 83 79 75 68 67 72 76 82 86 87 88 89
55 52 56 66 75 83 87 91 96 100 100 100 98 95 92 85 83 80 81 82 83 81 82 82 99 100 95 83 83 83 82 78 68 49 30 23 19 26 40 59 69 74 78
54 60 71 78 86 90 95 99 100 100 100 100 100 96 92 87 82 81 83 83 82 83 90 94 97 99 96 77 62 59 46 28 17 12 14 21 16 13 12 10 12 14 15
60 72 81 88 92 92 94 99 100 99 100 100 97 94 95 90 85 82 78 68 68 71 78 71 84 77 58 53 46 33 19 15 13 13 16 12 10 10 10 10 10 10 10
73 84 89 92 95 95 98 99 100 100 100 99 100 98 94 90 78 61 39 25 17 12 12 12 17 24 31 33 29 20 13 12 12 12 14 12 14 18 19 22 23 27 28
81 89 91 95 97 98 100 93 94 99 99 96 94 94 84 55 32 16 12 11 10 10 11 10 13 16 20 18 18 18 15 15 14 15 18 20 26 32 32 32 34 35 35
86 92 97 100 99 99 93 88 92 91 81 61 46 30 18 16 15 11 11 9 9 11 12 10 10 11 11 11 11 11 10 11 13 19 27 34 34 34 35 39 43 42 43
100 99 99 97 99 99 83 29 16 10 12 12 11 14 12 12 13 12 10 10 11 12 13 16 15 13 12 13 12 11 12 13 19 30 40 36 37 37 40 42 45 44 45

GFSMA_850_rhum_066.txt.gz
RH
44 34 31 36 37 34 36 41 47 53 64 71 73 76 78 76 77 80 81 80 85 90 91 90 90 87 85 86 85 84 84 87 87 85 80 74 66 46 23 16 16 17 19
59 49 36 37 42 41 45 51 60 69 75 78 82 83 84 84 86 83 85 84 86 87 85 86 86 92 90 88 87 90 98 98 95 89 89 85 79 75 68 36 19 19 21
69 58 46 48 54 57 57 61 69 77 80 85 87 88 86 80 81 82 87 83 81 76 81 91 81 79 88 88 85 84 92 98 99 100 96 91 88 84 78 73 43 24 21
68 67 62 62 79 81 80 80 82 84 86 90 89 87 87 87 85 84 91 90 95 86 91 89 77 81 86 79 77 85 80 91 95 94 100 99 96 92 88 81 77 68 38
81 68 70 77 85 89 90 92 94 94 89 89 88 88 89 91 92 93 84 94 97 96 85 79 78 86 82 76 81 81 83 84 90 95 96 96 96 98 97 86 82 79 71
89 82 76 84 90 94 92 92 91 92 92 90 87 76 87 81 88 80 82 80 90 96 80 82 87 82 71 77 79 80 81 83 83 86 89 93 97 98 96 99 84 85 82
94 94 88 91 92 91 92 94 95 93 86 89 83 84 78 81 73 75 74 73 81 79 84 79 83 70 72 67 77 83 82 82 85 86 85 84 84 90 94 99 99 98 91
90 92 93 93 95 96 97 96 96 94 94 96 91 89 90 76 72 72 64 60 81 75 86 82 73 68 69 69 70 65 66 74 76 74 72 75 78 78 81 87 94 100 87
90 94 94 96 96 98 98 99 98 98 94 83 86 93 93 84 78 77 76 83 81 86 84 79 71 70 70 75 74 58 60 51 59 71 77 73 66 62 79 78 83 89 92
94 95 98 97 100 99 99 99 98 71 60 38 38 40 59 96 90 91 80 80 82 86 83 84 80 80 79 83 77 61 58 51 49 53 65 66 61 63 98 86 90 90 94
82 74 72 83 88 87 59 38 33 30 31 33 34 38 46 55 74 100 90 76 81 80 78 84 92 88 86 83 80 70 64 58 54 50 51 54 59 55 59 67 83 86 85
62 64 66 74 45 33 30 30 30 30 32 36 40 44 49 64 63 79 92 91 86 91 90 92 97 94 93 87 84 72 67 63 57 77 66 58 51 49 46 45 47 49 69
59 63 63 34 30 30 32 32 34 35 36 39 42 46 54 66 94 98 93 90 87 100 99 99 99 98 95 92 86 79 70 64 59 80 89 90 60 58 56 52 49 50 49
72 53 34 35 35 31 36 36 41 40 43 44 46 54 60 94 97 97 93 93 99 94 95 98 100 95 95 94 91 86 80 68 64 66 71 72 64 88 90 98 91 94 90
42 35 33 32 31 31 35 41 44 48 50 52 55 69 79 99 99 96 91 99 96 100 100 98 100 97 99 97 96 89 83 68 66 71 72 79 72 99 98 95 92 84 86
38 34 34 37 39 42 45 46 45 47 50 57 65 97 99 99 98 93 88 86 99 100 100 99 100 98 100 100 95 90 79 71 72 72 70 69 82 93 98 94 89 81 84
37 41 45 46 48 50 49 49 47 53 54 75 99 99 97 99 98 95 91 93 88 88 99 99 99 100 100 100 99 89 82 76 76 75 74 73 82 93 92 91 90 81 77
52 53 49 50 55 54 52 53 59 66 67 98 99 97 97 97 98 97 99 97 99 99 97 99 100 99 99 100 96 88 87 83 82 78 77 71 78 84 86 89 88 87 93
53 51 51 53 54 52 52 59 63 73 80 99 100 99 97 100 100 100 97 92 87 84 79 83 98 98 99 97 88 91 84 85 84 78 74 67 68 73 74 80 85 86 84
54 54 56 55 56 62 64 70 77 82 90 99 100 100 100 100 100 99 93 90 88 85 86 90 94 100 100 98 93 92 87 84 78 65 43 24 18 18 28 49 68 77 82
59 60 56 55 65 70 75 83 90 94 98 98 99 100 100 100 100 96 90 90 90 88 87 93 99 100 100 86 68 74 68 51 29 17 16 14 16 15 11 10 11 13 17
62 62 59 66 71 76 82 90 93 96 98 100 100 99 100 100 98 96 97 90 86 82 85 93 99 99 78 64 58 47 32 18 14 12 18 16 11 11 12 11 11 10 9
68 63 66 74 80 83 90 93 93 97 100 100 100 99 100 100 100 94 88 67 52 46 43 46 44 36 32 37 31 26 18 12 13 13 14 14 13 17 19 23 25 27 28
68 67 78 84 85 92 93 89 94 100 100 100 100 100 100 100 93 66 36 23 16 13 11 11 14 20 21 20 20 16 14 12 12 14 17 16 23 28 29 30 32 33 34
66 72 80 85 92 98 99 97 89 90 98 99 99 96 76 47 30 21 18 12 12 13 13 12 13 15 13 11 11 11 10 10 9 14 22 28 29 32 33 36 39 40 41
68 80 88 96 99 99 100 92 82 85 71 50 33 22 15 14 16 14 14 13 13 15 15 16 18 15 13 12 10 10 9 10 12 19 30 35 33 35 37 39 45 41 43

GFSMA_850_rhum_069.txt.gz
RH
49 44 35 38 37 33 41 47 51 58 68 72 74 73 72 75 81 83 83 86 87 85 86 83 84 81 72 80 80 84 84 83 86 92 90 86 78 72 62 39 22 19 19
55 55 39 43 44 44 49 55 59 66 75 78 81 83 84 84 83 80 78 84 83 79 79 73 75 77 71 79 76 81 90 93 100 99 95 88 89 83 76 69 47 25 20
69 64 58 46 52 50 54 57 63 72 78 82 84 88 87 85 81 78 83 84 83 82 78 75 82 79 73 69 74 73 85 85 88 92 92 99 88 92 85 79 72 63 34
85 74 68 50 58 68 71 71 76 80 86 89 89 84 83 88 87 85 88 84 96 90 88 92 87 80 79 78 69 76 82 84 80 84 88 95 97 98 93 91 82 75 64
90 85 72 64 70 81 84 89 90 91 89 84 86 87 85 79 82 78 84 79 85 83 87 93 76 79 85 76 75 78 77 78 81 83 88 94 97 92 93 94 90 85 75
91 92 83 74 79 89 88 89 88 89 88 88 87 87 85 80 76 80 74 78 77 79 89 92 79 86 82 68 75 71 72 75 77 79 84 85 90 96 99 95 92 89 84
90 95 97 82 89 95 90 90 91 91 92 87 88 83 82 76 77 62 67 68 71 78 83 80 76 78 71 62 70 67 67 62 76 78 75 77 82 83 85 93 98 94 91
86 83 87 88 88 88 92 91 87 90 92 91 90 93 91 80 59 66 66 68 62 80 76 71 81 74 69 67 70 69 55 57 57 53 58 66 70 73 76 79 84 91 99
86 88 92 92 93 92 93 95 96 95 97 94 94 96 93 80 78 75 78 77 78 80 73 75 80 75 73 74 76 72 60 56 50 48 52 62 69 67 74 84 78 80 86
82 81 85 84 83 86 94 98 96 98 100 85 56 46 49 67 95 87 86 88 91 92 81 82 81 82 82 83 86 77 67 60 56 48 47 48 55 70 92 98 86 92 86
77 83 86 76 80 64 66 68 91 65 40 33 33 34 38 48 62 84 95 82 92 86 90 81 78 85 82 88 91 84 75 63 59 54 47 52 53 49 46 48 46 72 86
72 82 80 74 64 63 71 50 32 30 30 32 33 39 43 50 59 70 82 97 98 93 93 92 83 88 90 90 95 88 81 71 62 60 94 96 68 47 47 44 39 40 44
84 77 77 68 64 75 39 32 32 32 33 38 39 46 50 51 62 77 97 99 99 95 100 99 98 91 94 96 95 91 87 76 67 62 62 65 48 52 83 78 55 48 44
76 73 64 72 53 34 34 32 34 39 42 41 46 50 53 60 74 87 94 99 99 100 99 100 94 96 96 100 94 94 90 79 68 61 59 62 62 84 99 100 99 93 90
70 67 59 37 35 34 34 40 39 42 44 45 49 53 60 73 87 98 98 96 98 100 99 97 100 100 99 100 93 95 93 81 67 64 63 61 61 94 98 98 94 87 87
52 38 37 42 45 36 42 44 45 47 48 48 51 58 66 84 98 99 94 90 97 99 100 100 100 100 100 100 100 98 95 82 72 73 73 67 67 89 99 98 95 89 83
54 58 45 39 40 46 51 50 49 50 51 53 59 61 82 98 99 95 94 98 97 100 100 100 100 100 100 100 100 100 96 84 77 77 75 69 75 85 93 97 94 91 84
52 44 43 47 54 50 51 52 49 50 59 68 79 99 98 98 99 98 97 98 97 96 100 99 100 100 100 99 98 100 97 86 82 80 77 71 72 80 88 88 90 90 94
47 51 55 52 54 56 55 53 54 60 68 76 98 100 97 100 99 99 99 98 99 100 100 99 100 100 100 99 99 97 86 87 85 85 82 76 67 67 70 76 78 84 87
55 54 55 57 59 57 56 58 68 73 77 83 97 99 99 99 99 98 99 99 100 100 96 93 97 100 100 100 99 94 91 88 84 80 74 52 28 20 22 39 60 70 78
58 59 60 62 62 59 64 71 77 80 87 92 98 99 100 99 100 99 99 100 99 98 98 100 100 100 100 100 97 88 88 82 66 42 20 15 16 14 13 12 12 14 22
63 64 65 66 63 66 74 79 83 88 92 94 98 100 100 100 99 100 100 96 96 98 100 100 99 99 100 99 76 69 64 44 24 15 13 14 13 10 10 10 10 9 8
66 67 68 67 66 74 80 84 90 92 91 98 100 100 100 100 100 100 100 100 92 86 85 82 90 92 83 64 57 55 41 28 17 13 13 14 12 12 14 15 17 19 20
71 71 71 68 71 80 84 90 91 90 96 100 100 100 100 99 99 100 91 70 40 25 18 12 23 29 36 37 37 28 25 18 16 14 14 16 15 20 24 26 26 29 30
73 75 76 70 75 84 90 95 93 96 99 99 100 99 100 100 96 65 36 23 16 15 17 13 13 14 16 18 18 18 14 14 12 12 17 21 23 27 29 32 33 37 38
79 79 76 72 86 92 98 98 99 86 92 99 99 84 64 46 26 20 18 17 16 14 15 18 17 13 12 13 12 12 12 11 10 11 18 26 32 32 33 38 40 42 41

GFSMA_850_rhum_075.txt.gz
RH
43 43 41 40 38 37 39 43 49 54 58 69 73 73 72 73 77 82 82 76 76 80 76 76 72 72 76 80 76 75 66 72 84 93 91 89 85 82 76 70 60 36 23
51 58 53 47 43 39 37 43 57 62 69 75 78 78 79 80 82 81 80 80 76 78 76 80 78 71 72 78 76 74 66 63 68 74 73 85 89 88 85 82 74 64 37
42 55 61 62 49 54 49 54 59 64 71 78 82 83 86 83 80 81 76 79 79 72 76 78 83 81 85 86 76 71 63 65 72 73 79 81 83 92 91 88 84 77 67
62 80 78 72 64 65 60 61 64 69 77 84 85 83 85 87 85 84 81 80 77 78 72 76 79 77 78 79 80 72 65 69 64 67 71 77 84 87 94 95 90 87 77
90 91 89 82 80 65 66 67 70 79 92 90 86 84 86 84 84 85 79 75 79 79 80 77 77 79 78 81 82 69 59 61 61 60 60 66 74 83 94 90 85 87 83
90 88 89 91 85 72 72 87 91 91 85 85 87 86 87 82 83 75 72 66 54 53 64 68 81 84 76 75 68 66 67 66 61 52 47 60 74 78 86 92 93 87 86
80 86 88 92 94 85 80 90 91 85 86 84 84 82 82 83 58 52 40 41 43 50 58 65 92 78 74 72 66 66 68 68 61 51 52 48 47 59 73 84 87 98 98
88 86 85 88 88 91 88 87 87 84 84 84 82 84 83 79 58 54 52 60 61 59 58 75 85 77 74 70 68 71 74 74 66 54 48 45 45 45 50 62 81 85 86
95 96 86 81 87 90 82 83 85 84 82 80 87 87 85 81 84 59 53 54 69 69 66 77 81 81 80 76 80 81 78 80 77 65 48 48 48 59 90 71 71 86 80
97 83 84 85 84 82 84 87 90 85 81 83 89 90 91 88 90 72 51 66 66 76 80 81 86 88 79 77 76 77 77 83 84 75 94 98 94 82 81 58 55 80 86
81 83 88 90 86 86 86 93 88 75 75 73 65 43 34 36 37 48 75 56 69 79 90 82 76 87 85 77 78 76 84 90 88 77 79 97 74 60 94 84 89 56 67
75 73 68 85 91 88 97 93 81 74 77 76 61 34 33 35 41 51 60 52 64 74 92 92 83 91 88 88 89 86 91 92 92 88 73 70 54 48 82 92 82 52 46
79 77 90 92 95 100 98 92 87 82 81 53 38 36 36 38 45 52 67 88 91 82 84 84 82 84 94 96 97 96 96 93 97 92 80 65 53 52 91 96 98 98 85
74 75 82 96 97 87 93 90 89 79 48 39 38 43 45 47 51 54 65 86 97 96 88 88 81 79 86 92 98 100 97 99 96 95 84 67 59 59 98 99 99 97 95
73 83 86 97 84 74 83 80 68 51 44 42 46 48 48 49 54 56 62 99 93 99 95 99 94 92 94 96 99 100 100 100 99 97 90 73 67 65 95 100 99 95 87
80 91 91 79 77 79 86 81 51 45 44 47 51 48 49 53 57 61 74 90 97 91 97 100 95 97 95 99 100 100 100 100 99 98 94 78 72 67 86 99 99 99 96
84 96 86 88 95 92 73 48 47 47 52 50 48 48 49 55 58 67 77 94 93 91 94 100 90 100 99 100 100 99 100 100 100 99 91 78 76 72 85 98 99 99 92
99 99 97 93 77 54 49 50 50 53 50 51 50 49 50 60 66 80 98 95 95 94 100 100 100 100 100 100 99 100 100 100 99 99 91 79 77 73 72 87 95 96 92
71 69 58 57 58 59 54 55 54 54 54 51 49 51 59 68 80 97 98 94 94 94 100 100 100 100 100 100 100 99 99 99 98 100 89 84 79 76 73 67 74 86 93
60 59 55 55 56 58 58 56 56 56 54 52 54 59 64 74 78 92 95 94 95 95 98 100 100 100 100 100 100 100 100 99 99 96 93 87 82 74 62 47 50 63 75
64 62 60 58 58 60 60 60 58 58 54 55 59 63 73 84 94 96 100 100 100 100 99 100 100 100 99 100 99 100 100 100 98 97 92 85 72 44 21 15 14 14 30
73 72 68 66 64 63 64 63 60 56 56 62 68 75 84 91 92 91 94 100 99 98 99 100 98 99 100 99 99 98 99 99 92 82 80 53 24 17 17 16 13 11 10
77 75 73 71 71 70 67 64 61 59 62 63 65 76 86 90 96 99 100 100 100 99 100 100 99 99 98 98 97 100 96 66 72 46 20 17 16 17 17 15 14 14 14
79 77 75 73 71 71 68 64 62 58 62 66 74 84 91 96 99 99 99 99 100 99 99 97 99 99 100 99 90 76 73 69 46 29 19 15 15 17 18 20 21 21 25
81 77 75 75 74 73 70 67 66 68 72 78 89 93 93 98 98 98 98 99 98 78 45 24 19 25 38 46 51 49 43 39 24 16 16 16 17 17 23 27 28 30 32
84 84 82 81 81 80 76 72 67 76 80 88 100 98 98 98 98 99 99 80 42 29 22 20 18 15 16 24 22 22 18 16 12 11 12 17 19 22 28 30 34 36 36

GFSMA_850_rhum_078.txt.gz
RH
32 33 34 35 35 35 37 36 39 48 56 75 77 87 89 88 87 89 89 79 78 76 76 79 70 76 71 72 78 74 68 56 58 63 70 81 86 85 81 76 67 46 28
46 43 44 42 44 40 38 46 72 83 86 83 92 92 91 91 90 89 86 86 78 75 75 77 82 79 76 74 85 74 63 56 64 66 74 76 83 89 88 84 79 70 49
56 60 75 66 56 51 44 45 60 68 88 94 93 91 90 88 87 86 88 87 90 83 73 72 71 75 81 84 91 76 66 58 63 65 67 74 75 83 92 92 88 83 72
84 56 70 66 74 55 57 53 73 85 87 88 88 88 89 85 84 82 86 88 88 93 93 84 78 78 79 77 85 81 71 57 59 57 56 56 62 75 89 92 93 88 81
58 62 84 85 81 70 63 62 69 84 85 90 92 86 85 85 83 85 84 88 95 78 87 90 78 78 79 81 83 80 67 62 64 60 53 52 59 64 78 93 92 89 84
82 87 90 94 91 83 71 68 77 81 89 90 89 82 85 84 84 86 80 58 44 39 45 60 67 78 82 78 78 70 67 64 66 61 52 45 51 64 73 90 93 93 85
81 85 84 94 98 90 80 66 81 92 93 84 84 85 86 80 87 64 44 39 40 40 53 60 88 92 81 78 78 66 67 70 70 66 58 44 42 44 58 77 88 87 97
74 77 82 86 97 98 89 79 93 94 81 83 90 82 78 72 78 46 50 39 41 49 50 57 78 92 80 81 73 70 74 80 78 76 71 52 45 42 40 50 68 87 93
77 75 74 90 95 100 94 86 82 85 88 84 79 82 75 64 79 72 51 45 42 56 54 54 81 91 84 83 77 76 78 76 82 81 78 68 53 55 80 84 80 87 82
96 88 79 80 94 99 99 100 93 92 88 88 87 85 84 91 80 60 72 56 52 61 65 70 74 84 86 86 80 78 75 76 85 87 97 92 70 57 79 90 74 58 82
82 80 73 86 95 100 99 96 94 89 97 91 82 72 70 45 40 72 62 60 78 62 58 64 82 79 77 86 86 73 78 81 88 90 85 79 68 52 46 84 88 90 85
79 80 81 92 89 92 90 92 99 100 93 84 77 79 62 59 56 50 73 68 77 83 81 69 86 92 82 82 92 87 88 88 93 93 91 84 72 56 51 96 98 95 98
77 76 77 90 90 74 76 93 99 96 95 93 93 69 46 39 43 48 55 79 84 83 95 88 78 79 82 80 87 91 89 95 99 94 94 84 74 58 50 88 97 96 92
76 79 82 88 83 91 92 96 97 89 93 84 80 72 48 42 48 52 56 82 96 95 90 99 88 78 84 85 89 90 99 98 99 96 97 91 79 63 55 73 96 98 95
67 72 81 88 96 100 97 86 85 83 86 80 64 46 46 48 50 49 50 57 94 99 84 90 96 84 86 93 97 99 99 100 100 99 99 94 87 69 61 71 98 98 93
51 68 78 98 100 100 94 95 95 87 75 56 46 45 49 50 48 51 55 64 78 95 99 96 96 92 84 94 99 100 100 100 99 100 98 95 90 74 68 82 99 98 94
58 67 99 100 97 80 83 90 88 75 50 47 47 52 50 50 49 50 53 62 87 91 96 90 97 95 92 92 100 99 99 99 100 100 99 97 86 75 70 75 93 96 90
70 94 99 100 99 97 97 96 74 51 52 50 53 51 49 49 48 53 61 70 82 93 92 99 100 99 97 100 100 100 100 100 100 99 97 98 87 81 76 71 88 93 88
72 96 100 100 99 99 84 58 54 53 52 54 51 50 50 49 51 58 68 88 87 93 95 100 100 100 99 100 99 100 100 100 100 99 99 100 88 81 80 74 71 80 90
65 73 82 80 70 63 60 58 55 56 55 53 53 53 52 53 58 68 78 80 90 93 94 99 100 99 100 99 100 100 100 100 100 99 98 98 91 86 80 72 62 59 66
66 65 66 64 61 58 56 56 58 58 57 58 57 55 57 59 62 67 70 89 94 97 100 100 100 100 100 99 98 99 100 100 100 99 100 97 93 84 72 44 22 18 27
73 72 68 67 66 64 62 63 63 62 61 60 57 56 55 54 61 82 90 92 96 99 99 99 99 99 99 99 100 100 100 100 99 98 100 94 84 64 31 18 14 14 13
77 80 79 76 73 72 70 68 67 65 64 62 59 58 58 67 83 88 91 94 95 97 98 100 99 100 100 99 100 99 98 98 100 81 49 72 41 23 18 16 13 11 12
83 85 84 81 78 76 76 74 71 69 68 67 66 67 70 74 83 89 94 99 99 99 99 99 99 99 99 99 98 99 100 99 77 64 48 27 17 16 16 16 17 16 18
80 83 84 84 81 79 80 79 76 73 74 75 72 68 67 78 94 97 96 93 94 98 99 92 72 77 92 99 99 93 87 72 64 44 24 19 16 17 19 21 22 24 25
83 93 91 87 85 84 83 82 80 80 79 78 73 76 85 85 97 97 98 99 99 96 66 32 19 14 17 30 51 62 58 46 36 21 14 16 17 18 21 23 25 29 32

GFSMA_850_rhum_081.txt.gz
RH
72 81 78 74 62 54 65 63 66 62 63 68 72 74 79 79 78 79 82 84 78 77 75 77 76 81 79 75 79 81 70 63 52 54 68 68 71 85 86 83 73 62 44
54 69 76 74 56 54 50 65 65 68 68 76 81 82 82 81 80 79 80 80 81 78 75 70 70 72 79 85 78 86 74 64 56 60 64 70 75 80 91 88 83 76 66
55 46 56 45 49 74 68 70 69 74 79 78 79 80 81 78 79 78 77 79 78 82 83 82 76 68 72 81 86 88 77 69 55 54 53 57 65 81 86 93 92 86 79
59 51 63 83 89 88 81 70 76 81 85 82 82 79 79 80 76 73 74 78 80 82 87 90 87 80 78 75 83 80 82 69 61 59 57 54 57 64 79 86 93 93 85
84 84 67 90 95 95 91 81 83 85 83 81 81 76 74 76 75 73 76 77 80 87 92 92 85 66 76 76 80 82 79 66 64 63 60 54 48 52 62 79 97 95 89
83 64 64 95 97 98 89 91 86 83 80 77 78 81 84 78 80 76 76 77 73 46 42 48 78 57 71 80 77 79 76 68 69 67 65 58 44 44 52 70 87 92 96
94 91 90 90 94 99 98 92 88 82 82 82 86 90 76 76 77 78 80 72 68 36 35 50 82 89 80 84 79 81 70 71 75 76 73 72 59 43 38 45 63 80 89
77 83 88 91 97 97 97 97 87 84 83 88 88 85 85 74 71 72 69 54 41 35 37 40 51 96 95 80 78 81 72 77 77 71 73 72 67 50 42 40 46 55 72
92 90 87 80 80 87 88 97 99 89 87 87 82 86 74 70 65 70 74 54 44 43 53 44 47 67 91 91 83 78 75 72 71 75 80 78 73 60 55 54 53 50 64
91 87 85 92 86 82 76 73 79 100 96 87 83 85 83 77 74 62 70 61 51 64 81 64 51 61 79 89 83 84 80 77 75 80 94 93 82 73 53 46 88 82 69
74 72 78 96 90 79 68 82 77 89 99 97 99 93 90 79 75 58 67 59 78 68 81 79 74 71 77 82 84 86 89 81 82 86 91 90 88 84 57 83 87 88 84
70 77 58 58 95 76 66 66 72 94 91 99 99 99 90 79 70 63 61 60 59 70 80 71 74 85 90 88 84 75 94 92 90 89 91 93 87 88 67 70 88 97 90
65 65 73 82 90 78 65 58 82 91 96 90 95 91 92 93 85 63 56 49 70 76 81 86 89 88 82 83 83 78 83 92 89 93 98 94 85 87 74 55 86 99 93
78 74 76 80 73 78 79 84 92 92 93 91 94 93 87 80 87 59 48 51 62 75 68 82 92 91 83 81 84 85 90 95 96 96 97 100 98 89 81 62 60 84 83
86 82 72 78 78 79 94 99 100 100 99 96 98 85 84 82 53 48 52 55 59 89 85 84 91 93 85 80 84 96 96 99 96 98 99 98 98 93 87 72 63 79 80
70 65 72 84 97 99 99 100 100 100 96 92 93 88 61 44 49 54 52 53 61 87 98 89 93 93 92 93 83 85 99 100 99 100 100 99 99 91 83 72 69 94 93
58 62 66 80 100 99 100 100 100 98 96 98 90 59 48 49 55 54 55 57 64 79 97 100 100 100 91 93 88 91 100 100 100 100 99 99 99 93 87 73 73 87 91
57 60 68 96 100 100 100 100 93 91 93 79 56 50 50 54 53 53 54 58 71 77 90 100 99 98 98 95 98 100 100 100 99 100 98 99 95 92 83 76 72 78 92
59 63 81 100 100 100 100 99 99 99 88 62 54 52 55 53 50 50 56 66 79 82 83 88 100 100 97 97 97 98 98 99 100 99 99 100 99 98 87 80 75 72 79
59 61 67 94 100 100 99 99 100 82 60 56 55 55 54 54 56 58 59 61 78 86 85 88 100 98 97 98 100 99 100 100 100 100 99 99 96 98 87 82 77 70 67
62 68 69 72 85 96 96 85 68 62 60 58 59 58 57 58 56 57 59 58 63 82 87 99 100 100 100 99 98 99 100 99 100 100 99 96 98 96 90 82 70 49 32
61 70 73 73 70 70 68 68 66 64 64 64 62 61 60 58 58 59 62 71 79 97 97 100 99 100 95 98 100 100 99 99 100 99 97 99 97 94 85 69 32 18 15
61 70 78 79 76 73 69 68 67 68 67 66 65 62 65 65 62 62 67 78 84 87 94 100 100 96 96 98 100 100 100 99 100 96 98 83 84 84 58 24 18 14 11
78 71 73 81 84 84 80 77 76 74 73 72 69 68 65 63 65 70 77 84 90 98 99 99 100 99 98 98 100 100 98 98 99 99 88 54 34 22 18 18 16 13 14
87 91 80 83 84 84 82 81 80 78 76 74 72 71 69 66 68 84 97 100 99 99 96 98 99 99 98 98 98 99 98 100 99 84 67 55 29 19 18 19 19 16 19
85 92 96 92 96 90 87 86 85 83 82 79 76 74 74 74 80 99 99 100 98 98 99 98 80 40 30 61 94 98 96 89 96 68 40 32 20 19 20 20 22 27 25

GFSMA_850_rhum_084.txt.gz
RH
86 87 56 36 34 38 39 47 43 52 55 50 54 65 71 79 78 78 81 82 83 79 76 70 71 72 81 81 80 78 83 68 53 51 59 64 76 75 83 84 81 72 61
88 87 75 50 50 51 46 52 50 60 61 62 75 78 79 82 80 77 80 78 78 81 77 75 67 62 66 79 79 79 82 74 61 55 51 52 69 76 80 85 88 82 75
59 59 67 58 46 45 43 46 58 65 70 73 78 81 82 79 77 76 76 75 79 79 83 84 81 74 68 68 77 83 80 76 68 61 56 55 52 54 74 86 89 89 82
54 49 47 44 44 51 58 61 60 69 76 79 80 81 80 77 76 76 73 74 78 80 81 83 81 85 77 75 74 80 81 80 66 63 58 58 55 50 53 68 84 95 89
61 58 68 77 92 91 87 72 68 68 78 78 82 80 76 73 74 76 72 73 76 81 83 66 60 58 59 73 78 79 83 75 66 65 62 62 56 45 43 52 73 93 98
85 88 79 75 93 90 91 90 78 78 84 85 80 77 72 72 75 70 74 76 78 76 57 37 44 49 53 64 78 79 77 76 66 68 71 67 67 62 44 41 60 80 88
85 94 78 70 90 87 96 92 91 84 81 78 81 74 73 76 75 73 77 78 73 51 37 39 40 61 62 75 84 77 79 74 70 75 70 72 68 66 55 42 40 53 70
86 91 91 92 94 90 92 94 95 91 88 83 78 87 82 76 73 81 77 75 54 42 34 41 49 62 52 65 85 83 86 74 75 69 70 72 73 66 54 53 67 52 50
86 78 80 78 77 80 78 89 96 94 89 87 86 83 85 80 75 80 71 51 51 44 38 43 52 58 64 79 93 87 84 78 76 74 75 74 77 80 73 51 46 93 83
86 81 78 80 77 73 73 78 80 79 85 90 82 95 89 81 72 77 77 70 56 50 55 48 43 46 62 82 86 91 87 84 81 77 81 80 84 84 82 59 76 82 81
87 74 69 67 67 63 59 56 73 73 83 84 84 77 88 100 93 74 73 72 76 70 69 66 59 57 64 78 80 87 92 92 91 88 91 90 84 87 84 70 84 90 90
77 72 73 74 72 81 63 68 76 75 73 87 81 78 99 98 100 89 82 88 80 62 72 71 69 74 74 71 78 89 89 83 93 95 91 84 77 87 84 81 70 84 87
70 84 68 74 49 76 91 89 79 85 98 89 88 82 84 100 94 89 88 80 75 71 74 78 80 81 75 68 73 76 85 84 90 96 91 86 85 89 85 82 73 57 54
80 76 69 62 57 78 67 68 85 96 99 85 92 78 83 97 97 88 82 92 70 60 67 67 78 87 95 88 81 80 87 92 96 95 90 90 98 98 96 87 82 68 58
81 81 78 76 76 76 75 79 94 100 97 89 90 99 100 100 100 94 90 77 58 60 62 64 83 88 92 97 88 85 85 92 94 100 100 99 99 95 91 88 81 75 64
82 86 94 81 75 76 82 91 98 88 86 99 100 98 96 95 91 77 58 51 56 59 69 68 81 95 97 100 96 91 89 87 93 96 92 99 100 94 95 86 82 74 70
58 57 59 59 65 78 90 100 100 97 99 100 100 92 96 93 73 55 56 56 54 58 69 83 86 88 100 92 99 88 89 94 98 99 99 100 98 98 90 84 83 70 70
48 50 55 58 62 90 99 99 100 100 100 100 98 96 98 75 54 58 58 56 56 63 86 100 99 100 100 99 85 89 96 99 100 100 98 99 100 98 86 85 81 73 75
49 52 53 62 85 99 99 99 100 99 100 100 97 90 67 54 54 58 57 56 62 70 83 99 98 98 99 99 99 93 88 100 99 98 99 99 100 97 88 88 83 78 73
48 57 57 58 71 99 100 99 100 100 100 100 98 82 59 57 58 58 58 61 70 81 100 99 100 99 99 100 99 93 92 93 100 100 100 100 100 96 89 96 84 79 74
48 58 66 65 62 74 99 100 100 100 100 100 82 61 58 58 58 57 57 55 60 70 96 99 98 99 100 95 86 90 97 99 98 99 99 99 99 93 98 93 86 78 67
55 58 64 78 78 71 71 84 91 92 87 74 68 65 64 62 60 60 60 60 58 61 71 99 99 100 100 99 97 94 99 99 100 99 99 100 95 98 97 91 81 55 24
58 64 70 76 83 84 79 74 74 74 73 70 68 68 66 65 64 62 60 62 72 73 76 95 97 99 100 99 99 99 100 100 100 100 98 98 97 85 88 80 41 18 13
74 73 72 78 82 91 90 84 80 77 74 73 73 72 71 71 67 68 65 68 74 81 85 97 99 100 99 100 99 100 100 100 99 98 99 99 86 50 40 29 21 16 12
63 82 82 81 89 85 95 92 90 88 84 80 78 76 76 74 70 72 72 78 81 87 92 87 94 96 97 100 100 100 99 97 98 98 99 99 62 42 25 19 18 15 15
48 67 91 98 97 100 100 98 97 94 91 88 85 82 80 78 75 75 75 81 82 85 90 97 96 98 98 100 99 98 97 98 100 96 80 65 54 24 20 17 20 24 19

GFSMA_850_rhum_087.txt.gz
RH
68 34 30 32 34 34 33 34 35 35 36 40 41 52 61 73 74 78 80 83 80 83 80 71 67 65 67 75 83 85 84 80 65 55 48 48 63 72 74 80 81 81 72
65 50 45 34 31 33 35 36 38 41 46 48 50 60 67 78 82 77 72 78 77 78 79 80 80 72 67 64 76 79 84 81 70 61 58 51 53 62 75 82 84 88 81
83 65 60 39 35 39 41 37 43 48 56 63 68 77 76 80 80 74 72 75 78 80 82 82 80 75 73 70 67 74 83 80 73 64 59 55 57 55 56 74 85 86 88
91 79 59 52 50 47 48 48 51 60 66 71 74 78 81 77 70 69 78 74 72 77 81 83 83 82 71 76 72 74 80 80 72 66 64 59 58 52 48 53 69 87 89
87 75 63 60 56 52 54 60 62 63 70 76 78 81 78 79 73 74 73 74 72 75 78 80 77 52 49 59 71 75 78 82 72 67 65 66 64 64 57 43 57 76 92
59 61 66 70 83 87 87 82 71 63 62 68 74 80 78 80 75 73 75 68 75 78 80 79 46 37 46 53 70 76 80 82 77 68 68 66 66 65 63 55 42 62 84
68 73 84 91 91 95 90 82 82 78 71 79 86 82 80 79 72 74 72 74 75 76 72 41 33 39 44 53 74 81 84 83 78 72 68 65 67 70 62 50 47 43 44
89 91 89 82 83 84 89 90 88 85 85 85 81 83 85 82 74 70 74 76 76 78 65 36 33 35 39 41 62 85 89 88 82 75 72 71 66 72 73 64 46 56 62
78 73 73 75 76 80 79 82 85 88 90 87 85 83 88 88 78 73 72 82 82 70 42 39 36 37 40 47 62 81 89 93 81 80 76 74 72 75 78 75 65 92 91
85 88 85 80 74 70 68 67 70 74 76 74 80 84 85 81 92 88 87 88 68 56 49 49 54 52 50 49 62 85 96 92 82 80 86 84 78 77 82 77 74 98 89
91 88 82 81 82 78 74 75 76 65 60 55 68 73 79 87 90 100 95 88 79 68 65 72 77 76 69 67 60 70 88 93 93 92 90 81 88 82 82 83 80 69 88
80 73 74 72 70 79 74 74 80 85 84 79 78 78 78 77 82 96 94 90 81 85 85 77 71 74 76 72 67 73 88 95 92 90 88 96 88 84 90 86 84 77 66
60 75 76 73 79 84 81 88 87 85 90 86 84 85 87 88 88 90 91 90 93 91 84 68 80 79 79 83 81 77 84 89 90 88 98 98 89 90 89 92 83 80 77
66 73 82 82 85 82 85 74 93 91 90 96 99 98 100 91 89 99 97 78 100 98 85 79 80 79 80 84 86 85 78 81 88 96 95 83 88 88 92 91 87 82 81
84 87 84 85 81 84 89 95 100 76 85 90 89 94 95 98 95 94 100 98 88 93 78 62 72 71 79 99 97 95 84 82 86 86 92 100 99 93 98 95 91 86 78
78 87 96 95 94 96 99 98 95 80 99 99 98 100 100 99 100 100 100 99 96 87 71 69 69 74 84 99 99 97 96 94 89 88 86 93 92 99 100 93 92 84 79
56 56 56 55 54 54 60 69 97 99 100 100 99 100 100 99 100 94 93 77 63 69 66 73 80 88 94 97 96 98 87 95 94 97 95 98 99 100 100 99 88 80 78
43 42 41 44 47 49 56 74 98 98 100 100 99 100 100 100 100 98 75 57 61 66 65 65 74 93 99 92 94 99 98 96 100 99 99 99 99 100 99 97 87 83 81
37 43 46 48 53 61 75 99 99 99 99 99 99 100 100 100 100 88 54 53 58 60 61 65 66 86 98 98 98 95 99 99 90 91 100 100 100 99 100 98 86 84 80
33 39 46 49 53 60 71 89 100 100 100 100 99 100 100 98 80 58 56 58 60 60 67 78 84 97 99 99 99 99 97 89 88 99 100 100 100 99 99 96 85 91 81
39 40 42 52 62 66 70 86 98 99 99 100 100 100 100 91 73 61 61 60 62 64 69 80 95 100 100 98 98 98 93 95 96 92 99 99 100 100 99 92 95 91 83
49 50 50 54 63 69 73 78 86 100 100 99 100 95 96 88 71 64 64 62 62 64 66 71 77 94 94 99 100 98 94 97 100 99 99 99 98 100 95 98 97 89 74
43 59 64 66 66 72 81 84 83 83 88 90 87 85 82 73 70 66 65 63 63 63 63 67 68 70 87 98 99 99 100 100 100 100 100 100 100 97 95 90 89 72 34
17 30 54 76 77 78 82 90 92 91 87 84 82 81 79 75 76 69 70 67 65 66 66 67 69 80 98 98 98 100 100 100 100 100 99 99 97 99 81 67 64 31 15
14 13 20 42 75 91 98 89 95 100 98 93 88 85 81 79 78 76 74 72 71 68 64 67 79 98 100 100 100 100 98 100 99 97 97 98 98 85 53 26 19 16 15
23 20 17 18 36 73 99 99 98 99 100 100 94 89 89 87 84 80 77 77 73 68 69 75 92 97 98 97 97 96 98 98 94 97 99 100 86 64 42 25 17 19 19

GFSMA_850_rhum_090.txt.gz
RH
100 100 66 34 40 41 39 35 36 34 34 35 40 43 49 61 67 68 78 83 80 76 81 76 70 66 61 59 72 85 87 83 76 64 58 53 48 56 68 76 78 80 78
100 97 67 38 42 41 38 34 34 35 35 36 40 44 52 66 80 79 77 73 76 78 81 82 80 78 69 65 61 78 82 84 78 68 62 54 52 53 63 72 74 79 83
97 92 43 41 40 43 36 35 39 44 46 51 48 52 59 65 78 82 76 71 76 77 82 82 83 83 79 74 69 68 72 81 79 69 64 58 54 54 54 55 77 79 80
95 94 55 47 36 35 35 40 48 50 50 53 59 69 72 76 76 74 74 73 73 72 74 80 83 82 79 63 69 72 74 84 80 70 64 60 59 59 59 48 48 60 86
98 89 83 66 43 40 43 42 48 50 55 61 68 72 77 81 80 79 74 73 74 70 76 77 78 78 62 47 56 73 80 79 82 72 66 65 62 60 62 61 51 46 59
76 90 91 74 56 54 56 53 53 56 59 65 74 78 79 80 80 77 74 69 72 68 70 76 79 70 35 39 47 77 81 77 81 77 69 68 59 60 64 63 57 48 49
86 90 90 78 64 62 50 56 65 64 62 66 71 75 79 82 81 79 78 73 70 71 72 78 76 42 32 40 49 70 81 80 81 81 73 71 67 64 69 64 52 44 42
82 89 87 75 74 69 78 80 81 76 71 69 77 85 84 81 81 81 75 71 68 71 75 75 78 37 33 42 47 78 85 88 86 86 78 76 72 69 75 74 74 81 88
82 76 69 66 82 84 80 80 84 80 80 80 79 80 85 81 75 75 77 74 79 77 78 79 68 35 38 50 60 72 89 99 97 92 81 79 77 73 78 80 79 84 87
83 77 75 78 92 83 77 76 79 70 71 71 72 82 81 72 78 78 72 80 86 85 85 67 43 45 56 57 60 68 82 99 99 85 81 86 92 81 83 82 81 88 86
94 90 91 91 91 92 91 90 86 80 76 74 70 68 70 77 78 76 82 73 88 85 85 76 62 69 66 71 68 68 75 89 99 93 87 94 96 78 89 85 86 84 79
96 97 92 90 98 91 93 86 86 86 82 84 76 82 89 86 79 81 90 87 75 77 69 73 79 82 83 69 73 76 75 80 90 92 95 98 96 91 91 89 91 87 82
89 84 83 86 81 90 89 86 82 77 83 85 89 84 82 90 96 83 87 84 84 89 88 80 72 86 76 82 83 79 77 75 84 91 94 95 93 87 85 88 90 95 84
91 84 85 95 94 89 88 88 82 83 93 93 87 91 87 90 97 96 98 97 100 100 100 96 87 74 73 88 91 88 86 84 78 84 90 92 86 86 81 90 90 93 88
93 92 89 91 85 87 88 88 84 85 92 91 80 90 88 89 100 97 95 100 100 91 92 98 87 80 85 84 88 92 97 95 85 82 89 90 92 98 98 93 99 98 92
82 85 99 100 100 89 87 91 88 94 98 96 91 90 98 92 98 94 98 100 99 98 92 91 86 75 67 71 77 88 91 91 89 90 88 87 86 89 89 92 96 93 90
63 65 63 65 66 69 76 96 99 100 99 100 100 99 100 100 98 98 99 100 100 100 94 88 67 66 70 80 90 94 93 92 93 85 92 89 89 89 92 100 100 97 88
48 51 50 52 54 55 56 60 98 100 98 98 100 100 100 99 98 99 100 99 98 91 78 75 69 78 79 88 97 100 94 91 95 95 98 94 97 100 100 100 100 98 86
30 32 39 47 54 56 62 70 81 100 98 100 100 99 100 96 100 99 98 99 83 64 66 71 73 78 86 92 93 94 97 98 95 100 100 93 94 99 99 99 99 98 88
34 34 36 36 40 50 61 67 79 100 94 96 98 99 98 99 100 100 100 100 69 63 67 71 76 80 77 79 86 97 97 98 99 99 99 91 91 98 99 98 98 96 88
41 43 40 41 42 43 52 63 73 86 99 99 100 99 100 99 100 99 99 76 66 68 70 71 72 72 74 75 87 94 99 96 100 99 99 98 100 100 99 98 99 93 89
17 26 45 49 50 56 59 62 73 79 86 96 100 100 100 100 100 98 86 75 75 73 69 68 68 65 62 68 85 99 98 100 100 90 90 94 98 99 99 99 97 93 95
12 12 13 24 48 65 71 75 85 84 85 87 91 94 98 98 99 96 93 87 77 76 77 77 65 67 69 67 76 92 98 97 100 93 95 94 98 100 100 98 94 88 88
15 14 13 13 13 23 48 76 85 93 96 92 92 92 92 88 87 86 79 81 83 82 74 75 75 67 80 73 80 90 99 100 100 99 99 99 99 99 98 97 88 78 74
19 20 19 18 18 16 18 33 93 100 100 99 100 98 94 91 89 88 86 82 78 77 79 81 75 75 77 83 93 99 99 100 98 98 98 100 99 96 99 94 42 30 16
28 26 24 25 26 24 21 27 60 89 98 98 99 99 99 97 92 94 91 87 83 84 83 76 76 77 77 89 100 100 100 99 98 99 97 99 97 99 90 57 36 20 17

GFSMA_850_rhum_096.txt.gz
RH
55 54 70 94 98 98 85 93 95 56 42 39 36 34 36 42 49 55 63 72 76 77 73 75 75 70 69 64 63 65 89 90 84 80 68 61 49 46 48 54 61 66 72
67 58 56 70 90 96 95 89 93 74 50 42 38 35 36 39 48 54 61 70 76 74 76 80 77 77 76 73 70 61 70 89 79 82 71 62 52 50 49 50 62 72 74
65 74 56 56 69 99 96 84 91 72 63 47 44 39 37 39 50 54 64 74 76 76 78 80 81 79 80 77 75 61 62 66 69 76 72 65 58 56 52 54 56 51 55
55 60 81 77 64 76 99 90 73 82 63 48 43 41 44 46 49 54 72 78 78 76 76 75 77 76 79 78 78 60 63 80 75 79 74 68 62 59 54 53 55 57 54
56 62 74 90 91 70 84 80 74 78 65 52 39 42 47 47 49 58 62 75 76 77 78 75 72 74 75 77 77 53 59 79 82 81 77 70 67 66 65 58 59 57 53
74 85 78 85 98 93 92 76 77 67 62 56 50 43 51 54 56 62 68 74 78 78 79 76 72 72 74 76 76 40 64 78 90 82 78 75 71 71 71 65 63 64 64
78 90 93 93 99 99 89 71 81 86 75 58 64 69 62 63 67 71 74 78 80 79 78 75 74 72 72 75 74 40 59 83 94 81 81 80 77 75 76 68 68 66 67
81 86 99 96 98 96 89 76 80 68 65 58 78 81 72 65 70 71 77 78 80 79 77 78 74 72 71 74 74 57 38 80 86 80 83 85 84 81 79 74 75 72 72
76 85 100 100 100 98 74 70 69 75 63 55 79 74 78 78 68 69 74 75 75 74 76 76 75 73 72 78 76 65 35 66 82 67 69 85 89 80 82 79 78 77 78
86 82 92 98 100 100 86 72 64 51 60 58 76 75 74 77 76 70 68 64 73 78 76 77 75 75 74 78 78 58 34 40 46 52 79 84 89 82 88 87 82 80 81
86 85 97 99 91 93 95 92 72 56 66 76 72 71 73 78 78 77 75 72 72 69 66 63 70 78 77 80 74 51 41 50 59 60 75 90 87 98 97 98 83 86 97
99 100 100 99 100 100 99 99 93 82 66 66 73 71 79 77 78 81 80 76 74 70 69 67 68 77 79 81 76 55 61 61 63 59 70 90 82 89 93 91 86 89 85
100 100 99 98 95 95 91 91 92 86 84 80 85 86 85 86 98 89 90 86 87 84 84 82 76 79 84 86 73 80 80 75 77 74 73 76 86 90 92 90 86 81 80
88 99 99 95 99 99 99 99 91 90 90 94 87 86 97 99 96 93 90 95 98 96 92 98 91 89 89 93 84 97 92 90 87 82 76 77 74 82 87 89 83 86 82
99 99 100 99 94 91 83 79 76 76 84 96 99 99 97 97 88 84 96 98 100 100 98 96 100 97 100 100 96 100 100 97 92 86 82 77 78 83 85 96 94 86 89
97 94 93 96 100 93 98 99 100 100 100 99 98 99 97 92 77 96 100 100 98 100 100 99 98 99 99 100 100 100 100 95 97 95 88 82 84 86 85 87 94 90 93
49 59 68 72 80 89 89 82 92 100 100 99 99 99 98 97 98 99 99 100 98 100 100 98 98 100 99 100 100 98 91 92 97 92 85 84 88 90 90 82 83 90 89
39 37 37 39 46 52 59 60 62 76 96 100 100 99 99 100 96 100 100 98 100 99 100 100 99 98 98 97 100 98 93 98 100 97 93 91 92 91 89 78 91 89 92
28 36 42 40 38 38 41 47 56 55 63 74 85 92 98 100 99 98 98 98 100 100 100 100 100 98 99 100 99 100 100 100 99 100 96 93 94 95 92 92 96 93 97
12 12 12 13 24 42 52 51 51 54 64 68 73 94 100 100 99 98 99 99 100 100 100 100 100 99 100 100 94 92 90 100 100 99 96 93 91 99 98 91 87 93 99
17 16 15 14 13 13 14 22 45 60 62 63 77 85 96 98 100 98 99 99 99 100 98 100 100 97 96 97 90 97 97 100 98 96 90 90 99 100 100 96 85 96 97
22 21 19 18 18 17 16 15 14 13 16 48 69 78 92 96 99 98 100 100 100 100 100 100 100 99 84 78 84 88 84 86 94 83 90 89 96 97 99 100 100 100 99
26 24 23 22 22 21 20 19 18 17 16 16 18 51 74 89 99 98 93 98 100 99 100 99 100 94 80 74 83 91 83 81 75 78 79 82 97 100 100 100 100 99 100
27 25 24 24 23 22 22 21 20 18 17 17 18 30 38 82 93 99 100 99 100 99 100 99 100 98 98 93 92 88 89 89 90 91 94 94 94 97 100 100 99 99 99
24 25 28 28 27 24 22 22 26 26 24 21 18 19 29 67 89 98 98 99 99 100 99 100 100 100 100 95 97 90 91 90 89 92 94 100 99 100 100 100 100 100 100
26 26 25 25 25 23 22 21 24 29 29 28 28 30 36 52 92 91 100 100 99 98 100 100 99 100 100 100 100 99 94 92 90 97 90 100 99 100 100 99 99 96 94

GFSMA_850_rhum_099.txt.gz
RH
63 61 60 69 64 79 91 96 83 84 80 64 48 44 46 49 52 51 53 59 65 73 74 79 75 68 69 63 63 62 78 90 87 80 73 61 46 41 42 45 55 62 61
66 68 68 71 79 71 72 83 94 82 89 70 54 50 45 45 48 52 55 61 70 77 73 75 80 77 75 71 68 64 66 80 89 77 76 64 49 44 43 44 47 50 59
49 50 70 71 74 86 83 81 88 92 89 93 68 51 45 42 42 47 55 59 66 75 75 78 78 78 78 76 72 68 51 64 65 70 74 66 57 51 46 43 45 49 52
57 53 53 70 69 74 94 96 91 94 94 65 79 57 47 43 43 44 53 59 65 75 76 78 78 74 73 76 77 74 53 65 73 72 72 70 62 58 56 54 49 50 53
63 64 61 64 74 75 80 81 97 99 86 74 81 68 58 45 46 50 53 56 72 77 78 76 78 76 74 76 76 78 57 62 75 79 72 71 66 62 63 62 56 53 56
67 70 72 76 82 82 82 90 86 87 96 76 69 61 54 55 48 56 58 57 63 76 79 78 80 76 74 74 78 80 61 41 66 81 76 71 68 65 67 69 60 59 61
72 73 82 82 87 90 90 97 92 96 98 80 66 50 62 55 52 51 55 57 62 67 78 79 81 78 73 73 75 76 70 39 52 72 79 71 73 70 72 74 67 63 63
77 78 86 93 97 97 98 89 96 100 100 77 69 81 86 69 49 55 60 65 70 74 79 79 79 77 76 74 73 75 76 48 37 58 68 65 72 73 76 78 74 71 69
76 77 83 94 90 100 100 87 98 100 98 87 78 89 81 84 69 57 54 59 67 75 77 78 80 78 77 74 74 75 77 68 40 54 69 72 59 68 78 79 76 77 74
71 73 80 92 97 97 100 99 96 100 95 87 96 79 63 69 72 64 58 54 59 69 75 76 75 77 76 75 73 74 78 75 58 92 79 65 63 72 78 79 82 85 78
88 88 86 89 95 100 95 100 100 100 100 91 83 82 69 65 75 79 76 66 63 65 71 75 72 70 72 80 78 78 80 76 56 76 97 94 74 92 82 87 88 91 82
86 86 96 89 96 100 98 99 91 92 93 90 86 76 72 75 77 77 82 76 69 67 74 78 79 72 69 78 77 85 86 76 61 73 79 90 88 94 97 99 92 88 81
100 100 100 100 100 100 100 100 100 100 90 88 79 77 82 82 76 81 81 82 82 83 86 77 69 72 71 73 79 87 90 77 67 77 78 88 79 88 99 96 95 93 84
94 98 100 100 99 96 96 97 98 100 93 91 93 86 96 92 87 76 84 90 98 95 86 78 64 69 82 84 87 91 95 90 91 83 82 82 89 85 85 94 95 87 88
99 96 100 99 100 99 100 100 100 100 97 84 91 87 88 89 91 92 96 99 96 100 98 77 72 86 80 79 90 97 100 100 95 92 89 84 83 83 81 82 96 96 80
84 92 92 98 100 100 100 100 98 100 100 96 88 90 95 93 89 95 99 87 95 99 100 97 95 86 77 77 95 100 100 100 99 96 90 85 92 82 83 76 84 86 80
40 41 49 52 60 70 81 90 93 88 87 100 100 100 100 99 96 99 99 100 99 100 100 97 100 93 85 87 93 100 100 100 100 96 89 88 89 88 87 89 90 86 79
22 30 37 39 39 42 49 60 62 60 67 72 91 100 100 100 100 100 100 100 100 100 100 99 97 94 94 87 92 100 100 100 99 95 94 95 98 92 95 95 92 84 75
14 13 12 12 13 21 34 42 45 46 54 62 66 69 82 81 88 97 91 93 97 100 100 100 100 96 99 100 100 99 100 100 100 100 99 100 100 99 97 96 94 86 96
19 18 17 17 16 16 15 14 15 25 43 54 57 64 72 89 97 98 100 100 99 97 99 100 99 100 100 100 100 99 98 99 100 100 99 99 100 100 100 98 99 97 94
24 24 23 22 21 21 20 19 18 17 16 14 14 32 64 79 92 95 99 100 95 99 98 100 100 100 100 100 98 98 100 100 100 100 99 99 100 99 94 100 100 98 96
26 25 25 24 23 23 22 22 22 21 20 20 19 18 15 15 60 91 99 100 100 100 100 100 98 98 95 100 100 100 99 100 99 99 100 100 100 96 98 99 99 100 100
21 19 18 17 16 18 19 19 19 18 19 20 20 19 19 18 17 18 58 96 99 100 100 100 100 98 99 98 99 99 99 95 85 89 96 98 98 92 97 94 98 98 98
20 19 19 21 19 17 20 20 20 20 19 19 21 21 20 18 21 38 46 34 82 93 99 100 100 100 98 99 100 99 91 90 93 100 99 86 85 83 83 98 99 99 98
21 20 20 20 20 17 17 16 17 17 17 17 17 18 23 23 23 26 93 99 80 71 92 100 100 100 100 100 100 99 99 100 100 99 100 97 95 88 96 100 100 100 100
30 29 27 26 26 25 21 19 19 19 18 16 15 15 16 23 28 45 78 97 99 99 86 86 99 100 100 100 100 98 90 95 98 98 93 97 94 97 100 99 100 99 100

GFSMA_850_rhum_102.txt.gz
RH
65 67 71 94 95 94 100 83 89 93 94 99 89 76 72 79 78 79 83 56 53 58 70 70 73 65 59 59 58 61 63 82 87 84 76 61 47 39 38 41 44 51 58
76 82 75 70 73 98 100 99 95 94 93 91 93 91 70 54 69 67 75 71 58 62 70 72 83 81 72 71 68 62 61 84 81 85 72 65 56 43 41 41 42 42 44
79 72 56 53 62 71 98 100 98 98 93 89 85 80 60 52 49 59 53 61 66 64 72 73 72 80 81 82 75 67 62 52 60 69 65 68 62 50 46 45 44 44 44
72 58 57 56 52 88 73 83 91 89 92 94 90 93 79 62 62 59 60 56 61 59 63 73 73 79 79 78 79 76 71 62 64 63 64 67 62 56 50 51 52 48 46
62 62 65 70 72 61 65 80 84 91 93 95 99 86 65 74 53 64 62 62 58 59 64 68 73 77 78 78 76 77 76 75 51 72 78 69 60 58 52 55 57 53 49
62 65 72 74 91 98 93 86 99 99 99 93 96 100 84 62 74 51 37 55 68 66 59 73 77 75 77 77 78 78 79 78 59 48 69 75 63 58 54 56 61 60 54
68 71 78 72 78 98 99 98 98 90 99 98 100 100 84 76 97 63 44 42 47 60 60 59 78 81 77 76 74 75 79 84 77 42 64 80 72 63 63 65 70 67 61
71 78 76 70 74 92 100 98 92 95 97 99 100 100 98 89 85 58 54 47 48 48 56 56 63 76 79 80 77 72 76 78 88 88 60 82 82 69 68 71 75 73 69
77 76 72 70 70 87 88 94 90 97 99 98 100 98 96 81 69 63 48 46 47 59 52 56 65 75 81 80 78 74 74 75 82 81 86 76 85 72 74 74 79 74 75
98 90 74 73 72 88 90 89 88 96 100 100 100 100 97 76 68 65 64 58 61 66 58 57 67 73 77 80 80 78 74 74 77 77 86 87 91 80 80 74 82 77 79
88 100 99 95 93 93 94 94 92 100 100 100 99 100 100 83 82 79 75 65 60 50 58 60 58 71 75 72 67 71 76 80 79 79 84 87 93 84 78 94 97 93 94
98 100 100 96 94 99 98 90 98 99 99 100 100 100 99 97 88 92 82 82 80 81 68 64 66 68 70 68 74 75 80 83 84 82 83 89 90 80 84 92 97 90 95
84 92 100 100 100 99 98 99 100 99 100 99 99 100 100 100 97 90 91 81 84 83 88 75 74 71 77 75 80 79 83 81 89 88 88 95 87 88 92 100 99 93 92
96 99 100 98 100 99 100 99 94 99 100 96 99 99 100 100 94 85 81 89 99 99 91 78 77 72 70 81 91 81 81 78 87 88 93 96 92 94 95 99 99 100 98
98 100 93 97 100 100 100 100 100 100 100 94 99 99 92 89 83 79 81 90 100 99 92 78 76 77 80 79 88 85 77 80 76 93 98 97 97 93 94 95 95 100 100
42 55 73 80 81 90 98 99 100 100 100 99 100 100 97 93 94 92 89 93 96 98 100 93 93 79 73 88 96 92 86 82 94 100 100 99 98 88 93 90 94 100 100
21 29 38 42 47 51 70 75 83 92 94 94 97 97 100 100 100 99 96 99 97 98 100 88 88 88 97 100 98 97 90 95 98 100 100 100 92 92 88 87 96 91 91
16 15 14 13 14 18 26 39 48 53 60 67 76 84 90 98 100 100 95 100 100 100 100 100 99 100 88 95 99 98 96 96 99 100 100 98 97 93 88 96 93 88 90
21 21 21 20 19 18 17 16 14 14 19 35 48 55 59 63 68 75 92 100 100 99 98 97 96 95 97 98 100 97 99 99 100 100 100 100 94 91 97 99 93 93 92
25 24 24 24 23 23 22 22 22 21 20 18 16 14 17 33 58 72 84 89 95 98 99 100 100 100 100 98 95 100 100 99 99 99 100 98 98 100 100 98 97 96 94
23 20 18 17 17 18 19 19 20 20 20 21 21 20 20 18 15 16 44 76 91 94 98 100 100 98 99 100 98 87 100 100 100 100 98 100 99 100 100 100 98 98 96
14 14 15 15 14 14 14 13 13 11 12 12 13 15 17 19 20 19 18 24 66 92 94 100 100 100 99 98 100 99 100 100 100 99 100 100 98 98 99 98 98 98 91
20 19 18 18 17 17 16 15 15 16 18 16 14 13 12 13 15 20 20 22 23 43 96 96 95 98 100 98 100 100 100 100 97 96 100 100 100 97 98 99 100 99 98
20 20 21 21 20 19 20 19 19 18 19 16 16 17 30 28 24 22 31 52 35 28 45 96 100 98 96 98 100 100 99 99 100 100 100 100 100 98 98 100 100 100 99
19 20 20 22 24 22 24 25 24 21 21 22 40 40 38 18 31 21 27 80 86 87 41 57 94 100 99 90 100 100 100 100 100 100 99 100 100 99 100 100 97 94 97
22 22 21 22 22 22 21 23 28 30 54 68 69 72 76 47 19 18 40 85 86 87 92 57 41 88 100 100 97 98 100 100 100 100 99 100 100 97 100 98 94 94 98

GFSMA_850_rhum_105.txt.gz
RH
65 63 74 82 91 86 94 94 94 98 96 97 87 71 77 76 76 76 78 78 72 51 50 57 75 60 56 55 54 54 59 63 80 85 82 73 58 40 36 36 36 38 44
65 66 70 67 67 90 94 89 90 92 93 92 88 85 75 75 74 73 72 75 70 54 53 57 64 76 73 60 64 62 54 56 81 85 84 75 62 50 38 37 36 36 38
85 80 84 77 77 62 72 89 93 93 92 90 94 94 89 80 70 70 70 72 73 59 54 61 67 68 78 81 74 77 69 64 66 56 68 73 63 57 44 41 41 42 42
96 91 88 86 82 91 95 90 80 88 88 84 85 96 96 86 71 62 59 61 66 72 62 57 66 71 69 78 82 80 79 73 64 55 62 60 64 60 52 47 49 49 49
95 90 83 82 86 92 85 86 86 87 84 87 88 94 89 89 91 81 56 47 54 58 64 62 57 68 71 76 77 78 75 78 72 66 51 69 71 64 58 53 54 55 55
89 89 89 90 91 93 93 84 90 87 86 85 95 99 97 92 90 98 73 63 57 57 55 46 57 55 68 71 77 76 79 78 78 78 62 54 80 74 64 59 58 60 60
86 92 92 93 93 93 94 94 94 96 90 86 94 97 97 100 98 94 87 82 57 54 62 42 38 46 62 73 74 75 74 78 77 79 82 59 66 82 75 66 64 65 65
65 85 95 94 89 91 96 97 91 91 97 95 95 92 99 97 100 96 99 79 55 63 54 64 39 48 46 60 70 72 75 74 77 77 80 84 57 79 85 73 70 71 70
84 85 83 91 92 90 88 86 89 90 99 99 98 98 98 93 87 94 84 79 70 70 57 50 44 46 46 58 56 66 76 78 76 79 79 81 83 68 87 81 73 73 72
87 90 98 98 99 92 93 90 87 88 93 98 99 96 96 98 90 83 87 88 83 80 67 49 48 47 44 63 65 67 73 76 75 77 78 80 84 89 76 84 79 72 74
83 74 82 91 98 97 93 87 88 90 94 97 100 100 99 99 100 87 76 73 81 80 69 51 56 47 48 65 66 68 72 73 76 86 89 91 89 91 93 80 86 79 95
93 87 99 98 99 99 99 100 96 98 98 94 96 99 99 100 99 100 88 84 87 76 81 62 59 65 79 74 77 72 72 75 82 82 81 89 94 97 97 95 94 97 95
98 98 100 96 100 99 100 99 99 99 100 100 98 99 99 100 100 100 99 86 99 95 93 88 66 72 82 72 72 72 72 72 79 82 83 82 91 93 100 97 94 93 99
97 100 99 94 95 100 100 100 100 100 100 100 100 100 100 100 99 100 100 100 100 92 79 74 67 68 72 71 70 78 78 84 91 89 82 86 86 92 97 100 98 100 100
46 56 71 79 78 81 86 98 99 100 100 100 100 100 100 100 100 100 99 100 100 99 95 78 76 70 76 82 73 71 72 68 68 83 82 92 89 90 97 100 100 99 99
21 20 29 36 47 66 69 80 87 89 91 100 100 100 100 100 100 99 96 99 99 99 100 88 83 90 89 90 82 81 71 81 79 79 88 94 90 91 98 100 100 100 100
19 22 21 18 22 25 25 40 54 72 69 73 86 94 97 97 100 100 100 100 99 100 99 86 97 91 93 92 88 90 95 91 99 99 98 91 87 97 99 100 100 97 100
23 23 25 27 23 24 27 24 22 19 20 18 24 31 47 66 80 87 92 100 100 95 100 100 97 100 95 99 100 91 96 92 95 89 84 88 87 99 100 100 95 95 99
23 22 20 20 19 20 20 21 22 23 23 22 21 19 16 15 25 41 59 76 81 90 100 100 100 95 95 96 99 99 96 92 91 88 94 98 96 100 100 100 94 95 96
16 13 11 12 11 11 12 10 10 11 12 15 17 20 21 21 20 17 15 17 40 60 72 88 98 100 100 100 100 99 98 98 96 97 100 100 100 100 97 92 94 88 89
15 13 12 11 11 12 20 11 10 11 13 15 10 9 10 12 16 20 21 21 22 30 69 80 85 88 89 98 100 100 98 99 100 100 100 99 99 99 100 99 93 96 93
10 10 11 12 12 12 11 11 10 9 8 10 17 19 18 13 15 12 17 21 23 27 34 85 100 99 99 98 99 96 100 99 100 98 100 100 100 100 99 96 92 94 96
49 57 58 56 53 45 31 22 20 18 16 15 14 10 10 19 32 50 47 26 27 38 38 49 97 98 98 100 99 100 98 100 99 99 100 100 100 100 100 100 100 97 98
35 38 36 34 35 32 35 26 27 25 27 31 46 50 62 54 37 30 18 16 18 26 44 65 67 89 99 98 100 100 100 98 100 98 100 100 99 100 100 99 100 98 99
29 29 28 25 26 22 24 25 28 26 25 33 56 63 65 74 83 87 43 27 20 17 30 74 87 91 63 55 96 100 99 100 99 98 97 100 99 100 100 100 100 100 100
32 32 32 31 38 44 53 64 53 50 62 71 66 67 68 75 88 95 88 89 93 84 81 46 29 31 27 30 37 73 99 100 100 100 99 100 99 100 100 100 99 100 100

GFSMA_850_rhum_108.txt.gz
RH
72 70 90 95 93 99 90 89 89 85 89 88 88 75 77 80 78 70 82 81 80 74 52 45 67 78 58 50 48 51 58 58 71 77 82 77 65 52 36 34 34 35 37
77 67 72 73 85 96 98 94 88 87 86 86 89 92 88 72 79 78 76 79 78 74 64 50 48 56 76 68 54 51 51 53 57 66 82 80 78 57 48 37 38 38 40
82 71 67 63 63 70 72 74 89 88 85 87 88 92 89 88 74 75 76 74 73 70 64 51 50 52 57 73 80 63 65 70 74 69 58 48 69 59 56 46 43 43 46
93 96 91 77 67 73 74 67 63 74 86 95 90 85 89 89 94 85 72 72 72 71 58 44 42 48 57 60 66 83 81 79 78 67 71 56 60 58 59 55 47 47 51
92 91 91 88 83 82 77 65 63 78 79 74 76 79 78 86 88 93 86 72 62 57 54 48 38 37 47 56 62 63 78 80 80 76 70 69 50 64 65 60 55 51 55
88 93 84 84 85 83 83 82 77 62 67 71 78 77 78 77 84 92 96 92 91 63 58 54 49 46 41 47 59 64 63 69 75 78 76 75 67 58 76 71 62 56 58
75 77 92 92 91 89 88 88 87 92 76 67 86 88 85 87 84 78 81 99 99 83 73 57 53 52 49 43 48 57 60 69 73 70 72 76 83 71 67 77 73 61 59
77 89 96 93 92 89 84 86 85 82 88 88 89 100 100 97 94 95 88 83 99 100 91 66 54 48 44 47 56 55 51 65 72 74 75 74 80 81 68 66 77 72 62
86 92 87 93 82 90 90 88 90 92 94 89 92 97 93 91 88 85 79 73 75 93 97 91 82 55 50 43 45 51 41 54 69 75 78 77 77 79 81 66 70 80 70
89 99 96 91 94 94 96 98 97 95 93 96 93 94 94 97 95 88 85 83 80 80 79 83 87 70 61 50 45 48 43 53 54 65 80 85 80 84 82 81 72 73 75
94 100 92 90 82 83 86 90 94 99 100 100 96 95 99 90 96 100 98 91 89 89 84 83 85 81 67 57 48 48 52 49 46 64 76 87 93 90 95 94 86 77 88
97 100 98 100 100 93 95 98 99 99 99 96 98 100 100 99 97 100 100 100 93 93 95 88 85 80 72 61 56 50 61 63 44 69 74 72 85 94 95 99 93 92 90
99 99 99 100 93 89 90 96 100 100 99 100 99 94 96 100 98 100 100 100 98 97 92 89 82 80 84 84 88 77 65 70 61 63 70 82 80 85 82 91 99 97 98
60 60 76 72 73 74 87 84 93 90 97 100 100 100 99 100 100 98 100 100 100 100 100 91 94 97 89 80 83 78 74 75 79 74 77 76 70 76 79 87 98 100 99
38 30 31 30 32 36 44 63 72 80 92 90 98 100 100 100 100 100 100 100 100 100 99 98 96 91 87 89 84 76 78 83 77 68 68 69 68 74 84 83 88 95 100
23 24 25 25 22 24 29 28 34 52 77 92 90 85 95 99 100 99 99 100 100 100 100 96 85 84 85 85 82 86 78 83 88 80 74 66 65 72 72 71 83 95 100
31 28 26 25 26 26 24 29 30 30 33 40 60 74 52 60 85 83 90 95 99 100 100 94 91 90 90 94 95 87 88 89 89 83 83 83 80 79 87 86 91 94 100
23 21 18 16 14 13 14 16 16 20 23 26 36 32 32 25 24 54 54 69 82 90 98 99 100 100 99 99 96 100 100 97 100 96 92 97 89 95 95 94 95 98 100
14 11 11 10 10 10 13 11 12 9 9 11 14 17 20 22 22 22 19 19 26 40 72 82 88 97 100 100 99 100 100 100 100 100 98 96 93 93 91 93 96 100 100
11 12 13 14 14 16 23 14 10 10 10 10 14 19 19 19 15 12 14 20 21 21 24 36 58 80 80 88 99 99 98 99 98 98 97 94 94 94 93 89 92 99 100
12 13 14 14 14 15 18 20 16 13 12 10 11 15 16 15 18 19 28 26 20 20 22 26 30 49 82 91 96 92 92 92 95 89 83 88 99 98 89 96 100 100 97
9 12 14 16 15 14 14 14 14 12 11 12 11 12 19 20 36 36 30 26 32 45 45 46 46 76 78 96 100 99 100 98 96 78 79 84 95 99 100 99 98 100 100
21 23 25 27 25 26 29 36 29 20 16 16 16 15 15 19 35 58 66 38 21 18 23 56 73 74 85 90 97 99 99 100 100 99 98 95 94 98 99 100 100 100 100
27 29 29 31 33 30 37 41 77 66 47 31 33 45 61 57 50 54 52 32 24 19 29 48 82 88 87 62 77 92 95 99 99 98 100 100 97 98 98 100 100 100 100
33 35 37 41 47 45 53 58 78 74 63 44 48 66 67 68 71 80 93 79 36 16 29 52 61 66 78 70 43 43 40 67 82 90 98 100 98 99 99 96 99 100 100
35 39 41 49 58 63 61 68 74 84 96 92 82 70 60 70 87 87 92 98 94 88 71 39 32 33 34 26 21 37 90 95 99 100 91 97 100 99 100 98 97 99 100

GFSMA_850_rhum_111.txt.gz
RH
80 85 89 98 96 95 98 96 91 88 86 82 82 86 84 68 61 79 69 69 86 82 76 71 44 42 57 59 44 41 50 65 72 77 77 79 71 59 46 35 34 36 39
73 79 74 73 86 93 93 93 90 88 86 92 88 82 85 86 74 77 79 72 82 83 81 77 64 44 50 67 57 45 44 44 48 62 62 77 80 76 55 45 37 38 39
84 75 77 68 80 81 92 91 86 87 87 85 83 88 85 85 93 82 75 78 75 76 77 74 70 57 48 56 62 67 60 51 51 55 64 73 56 69 65 54 44 41 43
87 76 82 76 67 67 69 76 75 73 72 90 87 80 84 83 84 89 80 82 82 75 73 68 62 58 52 49 50 50 60 69 68 73 72 75 69 58 59 58 52 46 46
89 91 90 78 84 84 81 76 74 71 67 64 66 68 72 75 80 82 86 91 84 77 73 69 63 56 51 53 57 56 52 60 78 81 79 68 66 59 61 63 60 54 48
87 92 94 85 69 84 88 84 78 76 70 64 67 68 61 55 66 77 83 85 88 89 84 71 67 65 51 50 49 52 52 53 59 74 76 73 67 71 56 62 70 62 53
93 98 94 93 84 80 85 90 88 88 85 88 98 82 66 62 70 76 78 82 86 88 89 86 77 80 58 50 48 50 56 59 60 66 67 67 72 75 79 59 64 70 65
95 94 84 80 82 79 89 88 90 90 92 88 92 93 98 90 89 73 73 80 80 79 80 81 88 76 62 73 59 46 43 50 63 68 72 67 68 70 73 80 74 59 73
96 96 88 84 83 73 76 74 80 87 90 84 93 99 95 87 83 83 79 75 75 75 75 79 80 80 82 85 65 51 42 47 55 65 74 74 74 74 74 76 76 63 60
100 93 80 73 85 86 87 83 86 85 85 86 95 99 96 98 99 91 84 83 82 82 80 75 72 76 84 83 71 65 58 46 46 58 64 78 75 78 83 80 76 79 59
89 96 92 84 95 100 90 92 94 86 80 89 98 97 94 99 98 100 98 93 93 87 86 86 82 81 82 87 81 88 70 52 46 52 51 65 73 78 84 91 90 82 81
99 98 100 100 100 97 94 92 88 89 90 97 100 100 100 99 95 96 99 99 98 88 88 91 87 78 74 81 83 86 76 65 52 54 50 66 71 75 78 86 95 96 89
81 79 80 74 69 68 63 70 83 89 86 84 94 100 100 98 100 100 100 100 99 99 91 88 83 84 80 81 85 83 80 74 57 60 78 72 73 71 63 70 77 98 99
43 42 47 46 37 33 31 32 33 42 67 88 85 96 93 98 98 100 100 100 100 100 98 99 97 88 82 87 93 86 82 80 70 79 86 78 68 79 65 75 75 86 88
34 38 46 46 39 25 25 29 28 27 27 37 58 84 96 90 95 100 97 100 100 100 98 97 100 100 100 99 97 96 90 92 93 92 83 74 78 83 84 72 76 81 86
30 31 30 27 24 23 24 24 24 28 30 36 43 49 62 89 91 97 92 96 98 98 100 100 97 98 96 99 98 99 100 97 94 92 86 82 73 81 82 75 70 88 76
23 20 16 13 9 8 8 8 10 11 11 15 23 42 56 59 61 60 73 78 87 94 99 89 98 100 100 99 94 90 94 93 92 90 90 90 90 90 87 80 82 83 75
13 11 10 10 9 9 9 9 10 11 8 9 14 16 19 20 27 31 33 34 45 63 86 94 85 76 96 100 100 100 100 100 100 93 96 98 100 99 98 97 91 86 82
9 10 10 10 11 13 15 15 18 15 12 11 12 16 28 35 29 23 20 23 24 28 39 65 75 66 78 86 89 98 100 100 100 100 100 100 100 99 97 99 99 93 91
13 15 18 20 24 26 25 26 17 13 12 12 12 12 15 24 24 28 39 34 30 31 31 31 32 39 70 77 82 80 80 96 98 100 99 100 100 97 90 89 89 88 84
10 14 18 20 21 22 24 28 41 41 22 14 13 14 19 24 24 37 54 52 51 39 35 42 41 40 50 63 90 99 97 89 80 91 95 96 90 84 86 98 90 83 78
14 17 18 19 19 20 21 22 23 29 33 27 21 18 18 24 46 58 63 64 61 54 39 44 79 76 51 61 82 84 94 99 98 92 89 84 86 78 86 89 84 76 86
20 22 24 24 24 27 30 32 37 42 39 37 33 27 27 37 56 64 67 69 69 62 37 53 85 89 91 93 79 58 70 88 93 97 100 97 99 90 89 89 91 91 97
24 26 27 31 32 33 39 41 55 72 70 62 55 50 45 42 50 67 81 84 86 74 65 48 63 76 84 92 98 93 79 67 55 49 81 98 96 97 96 90 97 100 100
30 33 37 42 47 47 56 64 81 80 82 82 76 71 69 59 51 82 95 92 87 79 71 71 75 76 63 64 65 61 40 53 91 60 43 99 97 88 89 97 99 97 100
38 40 40 44 47 52 52 62 95 96 98 96 96 96 88 96 94 92 95 98 96 86 81 75 72 76 80 69 54 56 63 85 100 98 80 100 97 97 96 77 89 99 99

GFSMA_850_rhum_114.txt.gz
RH
97 95 92 89 92 88 92 90 90 84 78 82 87 88 89 86 83 72 51 72 63 61 69 83 79 72 49 46 50 46 39 47 58 69 75 76 78 70 57 41 34 34 36
96 93 92 87 86 87 85 86 88 88 86 86 84 85 86 90 88 84 72 66 79 68 68 77 82 78 74 47 58 64 46 39 40 52 65 73 78 79 74 58 43 36 37
94 92 92 83 82 75 82 80 86 88 85 75 74 72 79 82 87 87 84 84 76 81 78 74 77 80 72 66 49 79 65 53 47 42 41 56 64 80 79 77 56 42 39
99 89 98 90 83 75 83 86 88 84 76 73 67 59 68 74 74 76 80 82 84 82 81 80 82 74 74 66 60 64 77 76 70 56 52 50 70 68 50 58 61 54 43
89 100 90 99 90 85 82 80 77 80 79 74 70 70 69 68 67 70 71 74 81 85 82 83 80 78 78 68 62 54 54 59 68 74 70 69 68 69 69 60 59 55 51
81 93 97 90 97 96 90 94 86 88 86 84 85 76 60 53 50 45 43 47 58 77 85 86 85 78 77 77 68 60 57 54 57 63 66 81 80 78 66 65 56 63 61
84 93 92 94 86 100 99 95 90 87 86 90 90 70 66 60 49 46 39 35 41 54 67 84 87 84 84 78 73 69 72 56 58 61 63 62 81 79 76 72 71 53 69
83 85 98 96 99 100 97 84 76 80 79 79 88 91 93 68 59 53 60 60 52 53 64 73 82 86 88 86 84 78 83 59 57 55 59 56 63 71 76 77 74 73 60
99 100 98 99 100 99 100 90 79 67 74 66 75 100 92 82 82 81 79 80 82 77 74 75 75 81 84 85 81 81 83 66 68 52 52 59 57 70 73 76 74 73 78
95 98 100 99 96 88 85 97 81 86 82 81 77 86 100 99 100 94 87 88 89 85 85 82 78 75 75 77 78 78 80 76 75 66 55 61 58 69 75 79 79 77 78
92 80 90 100 100 97 98 88 94 91 88 88 97 99 88 92 99 100 99 91 83 91 88 84 85 81 74 81 80 78 80 82 88 78 63 66 61 68 74 74 80 81 85
99 90 98 96 95 89 83 78 79 85 90 90 93 99 99 99 97 99 99 100 100 93 92 88 83 75 79 73 75 74 80 85 88 79 68 72 68 64 71 56 72 76 87
61 65 63 66 50 39 36 34 31 31 34 49 81 90 97 100 98 99 100 96 99 91 92 86 82 85 84 78 76 82 79 82 90 88 81 89 70 69 71 66 72 73 86
43 42 52 56 56 54 35 26 27 29 29 29 33 41 56 78 97 99 100 99 90 88 99 89 99 100 95 82 91 85 86 90 89 84 88 87 82 76 77 74 81 76 78
32 34 33 33 34 33 30 27 24 21 21 24 26 30 37 46 56 84 98 95 98 100 98 98 100 100 100 100 99 99 97 93 96 89 87 88 88 78 78 83 84 86 88
25 21 17 13 10 9 9 9 8 9 10 10 12 18 23 33 45 58 67 93 90 99 100 96 99 99 98 100 100 100 100 100 98 96 96 98 86 87 84 91 92 88 87
11 8 7 7 7 7 7 7 9 11 11 10 10 10 14 21 24 27 28 40 55 83 88 77 93 92 87 91 100 100 100 98 99 99 100 100 100 95 93 94 91 93 93
10 9 9 10 11 13 14 14 15 15 14 12 10 10 11 14 19 24 24 31 35 41 83 80 42 61 72 72 94 94 99 100 100 100 100 95 97 100 95 94 94 92 93
9 8 10 12 15 18 20 22 23 24 22 19 16 14 15 17 20 24 37 52 49 53 59 55 49 39 43 50 56 79 92 98 100 100 100 100 100 100 97 100 100 96 93
10 13 17 21 23 23 23 23 25 25 23 25 23 20 19 21 27 38 65 62 78 63 50 40 30 29 35 38 62 81 68 88 94 94 96 100 100 100 100 100 100 100 99
11 17 20 22 23 23 24 27 32 41 47 36 29 26 22 24 37 51 63 61 76 66 61 54 35 34 38 42 63 61 70 65 68 99 96 98 98 97 100 97 100 100 97
15 18 20 21 23 24 26 29 31 35 42 47 45 40 33 27 27 42 57 66 89 82 82 80 55 78 75 84 83 87 70 54 69 58 89 84 95 93 94 93 96 100 100
20 22 23 23 23 25 27 31 39 58 55 57 53 49 44 46 42 36 41 58 78 94 98 89 78 62 78 87 99 98 84 82 74 45 50 53 74 82 86 85 93 96 97
22 23 25 25 24 26 26 30 39 47 51 56 57 62 65 63 61 91 96 89 82 85 84 81 82 74 74 68 87 81 74 66 55 29 36 72 40 38 62 68 79 95 100
24 25 27 28 30 31 35 42 71 70 73 71 72 66 66 63 64 98 97 92 84 75 72 79 85 79 71 82 81 80 64 60 57 32 19 95 31 59 48 36 53 78 100
26 26 32 37 39 40 46 53 55 60 63 70 71 75 73 91 98 99 94 92 94 81 75 78 86 90 81 76 89 92 82 92 100 98 94 100 90 94 98 94 79 56 82

GFSMA_850_rhum_117.txt.gz
RH
89 91 93 97 100 93 90 87 84 88 87 83 86 82 78 81 83 86 87 80 49 52 53 58 66 79 79 77 63 45 44 43 46 58 64 73 71 69 65 53 38 34 34
81 84 87 94 95 96 91 87 88 87 84 86 84 89 88 89 88 85 83 83 69 75 80 69 66 74 80 79 74 64 51 57 45 44 57 64 73 74 76 68 55 40 36
67 77 83 95 94 92 92 88 85 89 86 83 82 84 83 79 80 78 80 84 86 84 77 80 81 78 78 80 82 76 64 54 65 48 42 45 52 65 71 77 76 56 43
33 57 80 98 93 96 95 91 82 83 85 81 82 70 71 67 64 71 75 73 72 72 73 72 80 81 83 83 80 80 68 68 71 70 62 51 45 50 57 76 72 70 57
36 49 67 86 100 97 100 94 92 99 94 89 82 78 74 64 63 67 62 60 57 58 57 56 66 82 82 81 83 78 73 69 65 65 71 71 64 55 66 76 65 55 59
48 57 70 85 80 99 98 100 96 100 95 88 86 80 73 71 67 57 46 39 35 32 30 32 38 53 76 84 86 82 80 72 70 64 58 66 70 73 71 71 72 68 58
77 70 72 83 90 92 90 100 95 100 99 96 92 84 76 67 54 44 38 36 35 36 40 38 35 39 51 73 81 86 80 80 81 71 74 58 58 68 76 80 80 73 67
84 95 91 92 100 100 98 100 98 100 100 100 94 85 76 59 47 59 65 60 59 63 62 54 52 54 53 62 72 78 84 83 83 80 78 71 59 60 67 70 80 79 72
94 93 92 96 90 100 97 98 98 93 91 97 91 96 91 91 86 70 64 66 78 74 71 73 70 66 69 70 72 78 83 86 90 86 84 83 64 59 64 68 70 73 78
92 92 95 98 98 94 90 78 93 92 79 83 91 95 96 100 99 95 89 81 82 98 86 85 81 75 77 76 75 75 76 78 82 87 88 87 82 62 60 66 69 73 74
100 100 100 100 99 100 99 100 97 97 92 87 90 87 88 90 100 99 100 89 77 87 90 93 94 90 75 79 73 74 72 69 74 74 78 87 85 80 69 67 64 76 76
60 56 55 52 41 41 42 46 50 50 53 59 71 85 97 100 98 100 100 100 95 82 76 75 80 79 75 71 69 64 69 70 71 73 77 84 87 81 86 68 68 77 76
51 47 46 48 52 47 41 35 29 29 28 29 30 37 46 66 85 90 100 99 97 84 82 72 98 99 100 100 100 96 79 82 82 82 78 88 89 90 93 84 80 87 86
30 30 30 30 31 31 30 26 22 20 20 21 22 23 26 35 47 86 92 76 90 99 94 84 88 97 97 98 100 100 100 98 95 92 94 92 96 94 92 89 82 85 83
21 18 15 12 9 7 7 6 6 7 9 9 9 11 15 19 25 30 32 46 98 100 100 82 94 76 82 92 95 100 100 100 100 100 96 98 100 100 95 98 92 91 82
15 9 7 7 6 6 6 6 7 9 12 12 11 11 14 17 21 23 23 24 43 78 100 68 50 56 64 86 92 91 98 99 100 100 100 100 100 99 94 99 99 95 87
9 8 8 8 8 9 10 12 13 14 15 14 12 10 10 10 13 22 25 31 39 49 89 28 23 16 24 41 76 86 86 92 100 100 98 99 100 100 99 96 94 99 87
9 8 8 9 11 14 16 16 17 18 19 20 20 17 14 13 15 17 19 29 46 50 79 59 29 16 14 16 24 54 88 78 84 100 100 100 92 100 100 100 100 96 98
9 9 10 14 16 17 18 19 19 20 21 25 25 24 22 18 16 19 26 40 47 60 64 56 36 24 16 14 15 20 39 66 71 82 98 100 100 100 100 100 100 100 99
9 10 15 18 20 21 22 23 24 28 32 33 32 30 30 27 26 33 42 47 55 68 69 67 60 41 28 21 27 42 23 24 38 48 89 100 99 100 100 100 100 99 100
10 14 18 21 22 23 23 24 29 34 39 44 44 42 37 34 35 35 45 59 75 93 92 94 88 76 59 41 46 48 47 40 21 92 70 87 92 91 98 100 100 100 100
11 17 21 21 22 23 25 25 26 34 39 44 45 47 44 45 42 41 39 46 96 94 95 100 100 93 79 70 66 64 68 55 55 22 33 17 21 50 72 86 93 100 100
15 20 22 24 24 23 25 27 33 35 36 40 45 47 46 48 51 46 49 70 69 68 80 94 92 86 88 82 89 87 94 83 68 28 36 24 12 12 19 48 78 90 92
19 22 23 24 22 23 23 26 34 38 44 46 49 48 49 48 45 58 92 90 78 69 72 74 77 77 82 90 93 96 100 89 75 48 43 72 17 22 16 13 30 66 93
22 24 24 22 22 23 26 35 42 43 44 44 46 47 54 53 50 95 96 92 86 77 74 72 75 82 81 94 89 87 88 100 89 66 47 100 93 97 54 35 43 53 87
22 23 24 25 27 28 38 44 48 52 49 52 51 60 66 69 90 100 94 94 98 86 84 86 84 82 76 68 70 79 92 92 82 82 86 91 78 85 74 38 73 99 82

GFSMA_850_rhum_120.txt.gz
RH
64 76 79 84 87 90 93 96 94 93 89 87 88 87 84 83 82 82 80 83 84 85 53 53 57 60 66 74 76 73 72 50 46 43 43 55 67 72 68 64 52 37 33
26 30 68 74 76 85 86 96 98 91 92 94 90 88 88 82 84 87 88 88 89 88 65 60 72 72 65 65 68 78 79 73 55 53 46 41 51 65 73 73 68 55 41
37 30 26 57 77 76 92 94 94 95 90 88 88 85 87 83 84 86 84 83 82 87 90 77 76 81 84 80 74 69 72 74 76 58 56 54 42 43 56 73 74 72 58
56 43 37 34 45 77 78 94 99 94 95 88 88 85 86 84 70 69 69 72 66 66 62 61 52 50 53 70 81 84 78 68 72 75 67 68 68 54 48 46 63 72 77
60 52 50 48 58 65 77 89 93 99 97 93 94 91 88 81 73 71 63 56 56 58 61 58 65 64 67 60 52 82 84 83 83 73 72 66 66 76 68 56 52 62 72
76 76 72 60 62 69 89 91 73 94 100 97 98 99 92 85 79 71 63 58 56 51 44 42 38 35 33 37 52 76 82 77 83 82 81 68 64 61 73 76 68 73 85
86 82 86 98 100 99 98 99 91 92 99 95 100 99 95 94 88 78 70 55 43 42 45 48 46 45 41 36 38 52 80 86 82 84 86 82 73 62 63 66 75 76 82
91 91 87 88 97 96 98 94 96 89 96 93 93 91 90 81 67 62 60 65 60 52 51 59 65 69 68 63 56 50 60 71 88 88 87 82 80 84 80 61 63 72 76
87 81 82 84 75 84 93 92 86 83 86 86 80 93 85 90 77 73 69 71 72 70 72 76 70 74 79 78 75 71 68 72 77 84 86 88 84 84 84 81 70 62 68
94 96 92 96 98 97 100 99 91 97 99 97 99 99 96 98 88 82 75 86 76 78 78 77 80 81 80 81 76 77 72 72 67 69 79 84 89 89 89 86 86 74 63
67 64 62 61 64 70 63 68 68 80 78 82 90 89 93 95 100 100 99 94 58 50 69 76 74 69 76 82 95 98 97 98 98 78 75 74 82 86 90 89 88 90 62
54 51 51 50 54 55 58 55 39 35 34 32 31 31 39 60 90 97 98 97 98 70 37 55 79 84 86 98 100 100 100 97 95 93 92 83 80 84 85 86 87 92 80
34 27 26 26 26 26 27 28 31 31 27 23 22 23 26 27 30 36 52 81 63 42 42 34 77 87 92 94 92 93 97 98 96 94 86 96 91 88 87 86 89 91 90
23 20 16 12 10 8 8 8 8 7 7 8 7 8 12 19 30 56 69 50 52 65 63 74 39 74 71 60 66 76 87 86 100 100 96 90 100 100 95 88 93 97 93
17 12 8 8 8 10 10 11 11 12 12 10 9 8 8 7 8 8 9 16 32 98 86 26 70 21 19 15 14 24 81 82 87 97 100 100 99 99 100 100 96 96 97
14 8 7 6 7 7 9 11 13 14 15 15 14 13 12 11 12 15 20 24 37 82 99 44 32 35 18 14 12 12 24 80 79 89 92 100 100 99 99 100 100 98 95
12 7 6 6 6 8 10 12 13 14 15 16 18 18 18 15 14 16 18 23 38 72 84 69 34 23 20 19 13 12 14 25 76 76 97 98 94 98 100 100 99 99 99
12 8 7 8 12 15 16 16 17 18 20 22 24 25 24 22 20 19 21 28 43 47 76 88 37 34 32 33 27 22 22 19 30 45 84 99 88 99 100 100 100 100 97
11 8 8 10 14 17 19 20 22 23 27 29 29 28 27 26 25 24 23 26 32 42 58 87 69 43 42 41 36 35 28 21 14 19 39 71 92 94 100 100 100 100 100
10 8 10 14 18 19 20 20 22 24 27 30 32 33 32 30 27 27 29 32 39 52 57 69 82 68 54 45 50 44 30 33 25 20 21 45 66 82 89 97 100 100 99
10 9 12 18 19 20 21 21 22 28 31 34 38 40 42 42 46 48 50 46 66 82 71 78 92 100 86 70 71 69 61 51 30 35 27 17 13 13 36 74 87 99 100
10 11 17 20 21 22 22 23 24 26 27 32 36 40 46 51 48 46 46 51 98 93 96 98 96 90 79 74 72 85 88 90 99 53 58 29 24 16 14 16 26 84 93
10 14 19 21 21 22 22 24 28 29 36 42 42 44 43 44 46 45 44 59 77 79 84 86 82 77 78 86 95 93 98 97 94 80 81 64 30 28 22 15 26 28 64
11 17 20 22 22 22 24 28 35 39 41 42 45 46 47 46 52 53 76 85 80 76 78 74 79 80 92 98 96 96 94 90 92 75 75 74 52 84 50 43 96 100 74
14 19 22 22 21 22 25 32 42 44 43 44 47 51 62 70 66 97 100 97 92 84 76 77 82 86 84 90 81 73 70 91 93 83 69 100 86 68 42 22 48 100 100
17 20 23 23 23 23 28 43 49 49 49 53 54 63 74 82 95 100 100 93 95 88 92 96 87 79 77 71 63 64 84 95 99 100 83 87 80 82 86 35 42 56 73

GFSMA_850_rhum_123.txt.gz
RH
20 18 23 61 76 78 77 84 87 89 95 93 94 93 89 89 85 84 84 82 89 88 85 86 64 50 56 65 70 72 77 76 67 51 47 43 47 58 66 65 62 52 36
32 31 27 23 22 54 76 65 80 85 91 97 90 92 95 94 89 89 84 82 83 92 92 88 75 52 52 63 65 64 66 70 80 78 66 52 46 46 57 69 69 69 60
37 41 44 40 32 28 31 74 75 66 86 86 99 92 89 90 90 90 86 83 84 86 87 90 88 76 76 84 88 88 81 79 73 75 75 72 61 57 44 49 63 71 74
53 55 53 48 43 41 37 36 71 80 76 82 88 92 89 88 88 85 87 84 76 75 77 78 72 71 65 66 65 60 74 69 76 90 81 77 73 72 75 54 47 48 60
61 68 67 61 54 43 57 74 83 86 84 88 89 91 92 91 97 90 84 76 70 66 69 77 82 83 80 87 82 88 73 58 56 77 89 89 80 74 74 79 72 56 50
71 68 75 80 91 85 94 98 98 94 96 91 83 82 96 99 100 100 95 90 84 75 70 66 60 56 55 51 50 49 53 73 77 62 79 83 90 86 74 73 74 81 71
78 80 82 78 78 86 82 82 85 82 98 99 84 79 85 90 99 100 99 95 83 72 73 71 66 62 59 54 51 52 56 59 54 61 79 79 84 90 93 79 66 64 73
83 78 72 71 73 74 71 88 88 79 75 79 82 78 72 66 69 82 76 78 79 73 70 69 67 64 62 58 58 60 65 73 78 81 77 80 91 91 90 90 87 66 63
86 85 76 77 80 86 76 78 87 91 92 93 91 91 84 73 72 66 74 73 74 68 80 74 75 68 65 69 81 94 89 81 76 80 85 83 84 88 91 92 90 87 84
66 64 62 60 60 63 67 64 59 70 80 81 94 100 100 100 100 98 87 91 88 76 79 77 76 77 73 72 79 99 100 100 99 94 92 86 90 91 87 88 91 90 86
55 54 53 53 55 57 58 62 56 46 40 37 34 38 58 84 98 100 98 92 53 36 26 28 30 61 75 86 100 100 100 100 99 99 99 96 94 94 98 100 98 92 88
39 30 24 22 22 25 28 29 34 32 31 27 24 26 29 36 47 57 74 59 45 18 9 16 78 67 73 80 89 93 93 89 90 93 95 100 97 81 89 92 92 99 98
23 19 15 12 9 7 7 6 7 7 8 8 8 9 12 17 23 29 61 79 50 14 14 10 47 44 27 42 26 25 31 48 73 86 88 89 90 89 82 83 91 94 95
19 15 9 6 6 5 5 5 5 5 5 6 7 8 8 10 14 19 30 42 55 72 59 29 24 14 14 10 8 7 6 6 9 64 83 82 88 98 97 86 89 96 99
18 12 8 6 6 6 6 7 9 10 11 11 11 10 10 10 10 11 19 31 55 82 80 45 29 9 11 11 10 9 9 7 6 6 32 87 87 82 93 99 99 97 100
20 12 7 6 6 6 8 10 12 13 14 15 16 16 15 14 13 12 12 16 24 54 90 17 17 24 25 24 19 17 14 10 9 9 8 28 89 88 80 93 100 99 100
22 13 8 7 7 10 13 14 15 16 17 18 20 21 21 20 19 17 16 16 21 48 95 54 23 24 32 36 28 26 21 17 14 12 10 13 34 83 90 86 96 100 100
26 14 8 7 8 12 14 15 16 17 18 20 23 26 28 28 28 27 26 28 32 43 67 95 61 41 37 41 39 28 27 24 20 18 16 14 16 22 59 92 94 95 99
30 16 8 7 10 14 15 16 16 18 20 22 24 25 26 26 28 28 29 31 34 37 48 74 88 53 50 41 40 36 30 25 25 22 20 21 19 16 15 24 82 93 94
36 19 9 9 15 18 18 18 19 20 22 26 30 30 32 36 38 39 43 44 47 58 70 91 97 97 92 57 51 68 53 60 36 37 33 29 19 15 15 15 12 68 94
40 20 10 12 17 18 19 18 18 21 25 29 33 37 41 46 49 48 51 47 56 96 99 100 100 100 98 93 86 82 94 71 86 85 50 32 26 22 14 13 15 12 35
44 20 10 15 19 20 19 18 18 20 22 27 36 42 45 45 43 42 45 46 56 99 100 100 100 99 96 97 97 100 95 100 100 86 92 41 41 32 25 20 31 50 41
44 18 11 18 20 20 19 18 21 22 26 36 39 41 42 45 46 48 48 49 57 67 93 96 99 90 94 97 99 98 99 98 94 58 80 90 43 50 36 27 26 96 100
42 15 13 18 20 21 20 22 23 27 35 41 42 45 48 49 54 65 69 90 84 80 81 83 83 78 86 98 100 100 95 78 67 53 79 99 59 96 48 34 29 28 92
36 12 15 19 20 21 23 23 27 37 41 42 46 51 61 70 74 98 100 100 100 89 82 82 87 96 99 100 98 88 86 85 78 63 48 98 95 96 62 39 37 39 50
27 12 18 19 20 19 22 24 34 44 45 48 50 56 75 84 100 100 100 96 94 99 93 96 100 93 83 86 78 67 69 90 99 96 80 95 100 100 98 71 49 37 33

GFSMA_850_rhum_126.txt.gz
RH
26 27 27 30 42 57 75 85 73 66 69 77 84 91 99 96 96 95 89 96 83 89 89 86 82 85 72 54 62 66 68 72 77 79 70 49 46 44 53 63 63 59 52
31 31 35 62 67 67 70 78 84 94 83 62 71 75 83 94 93 95 91 90 85 85 87 88 89 87 89 59 56 60 66 68 70 74 80 82 72 53 45 48 62 68 65
40 41 43 44 70 91 86 84 87 75 71 83 72 67 80 87 92 89 96 95 91 81 88 91 93 89 92 84 79 86 94 96 97 93 85 82 83 81 69 58 47 56 68
48 53 53 53 51 88 93 93 93 71 67 98 87 81 73 86 81 88 89 94 95 92 90 89 91 95 97 89 76 78 82 79 80 88 97 94 96 93 86 78 75 58 48
58 64 69 74 78 80 84 81 95 98 89 100 100 95 76 84 83 88 87 98 99 97 89 88 86 90 90 82 82 84 83 83 84 76 76 88 85 99 96 90 86 82 78
66 69 72 72 70 65 74 81 85 92 82 92 91 94 95 72 89 92 95 99 100 99 98 98 97 98 76 70 70 68 67 67 69 71 83 94 84 73 86 94 93 79 74
76 76 69 70 72 77 78 79 85 88 97 77 78 95 91 67 65 68 83 97 97 97 100 100 95 100 100 97 91 88 65 62 61 71 82 77 82 98 90 70 90 97 92
75 77 72 69 76 76 76 73 76 79 82 85 89 94 81 83 85 80 82 80 83 70 85 91 84 79 73 79 76 78 75 75 70 74 74 81 83 87 83 91 98 87 96
71 72 67 60 61 60 64 66 65 69 67 80 93 98 96 90 96 98 93 92 97 93 89 94 93 83 89 86 68 64 65 84 91 88 91 94 95 89 94 93 87 98 99
58 56 55 54 54 56 58 59 59 53 46 44 50 61 95 100 98 96 97 98 95 80 56 35 34 48 72 78 86 78 70 71 97 99 100 99 97 97 92 92 97 96 97
48 42 33 25 22 19 21 25 25 28 29 30 26 26 32 74 98 97 89 68 61 65 15 7 89 86 62 70 76 72 86 92 91 91 88 93 97 99 99 90 85 92 97
23 21 17 12 9 7 6 6 6 6 6 7 8 9 14 49 80 78 69 62 61 45 8 88 84 61 29 31 27 16 14 22 38 41 55 99 92 82 92 84 82 85 86
21 16 11 8 6 5 5 5 5 5 5 6 6 8 9 13 21 48 73 59 54 44 54 58 84 53 20 11 8 7 6 5 5 5 9 24 66 84 96 88 83 75 73
21 16 10 7 6 6 6 6 7 8 9 9 9 10 11 13 15 64 83 73 56 51 48 67 64 71 23 10 10 8 8 8 7 7 5 5 5 33 100 84 86 82 74
24 18 11 6 6 6 6 8 11 12 13 13 14 14 15 16 16 18 31 78 78 61 50 50 66 76 80 49 30 16 13 11 10 10 9 7 5 8 10 56 85 88 88
27 21 13 8 7 6 9 12 13 13 14 15 16 17 20 21 22 22 23 50 78 84 75 55 66 70 88 78 70 24 18 13 11 11 12 11 11 7 7 8 42 86 87
34 27 17 9 7 8 12 14 14 15 15 16 16 16 17 18 19 21 23 34 80 92 85 62 72 78 51 50 40 36 25 27 21 13 13 12 12 12 10 8 9 28 79
42 35 23 10 8 10 14 15 16 17 17 18 19 20 22 23 23 24 27 35 68 89 91 87 85 89 89 86 41 24 23 30 30 19 13 13 15 17 14 12 12 10 11
46 43 30 14 8 12 15 16 16 17 18 21 21 23 23 24 32 38 40 58 75 89 97 97 92 92 89 93 92 47 48 44 56 33 25 18 15 14 14 14 11 12 11
49 48 38 18 9 13 15 16 16 16 18 19 19 22 26 30 36 44 81 91 94 95 95 96 93 91 90 91 91 90 90 92 75 33 62 62 24 14 12 14 14 17 20
52 50 45 24 9 13 15 15 15 16 17 20 23 27 32 35 40 43 49 86 93 94 95 96 92 90 88 84 88 91 93 99 100 94 88 87 58 40 20 16 16 23 29
56 54 50 29 10 14 16 16 15 20 21 24 32 36 37 37 40 42 45 49 54 97 97 95 92 86 85 87 88 92 100 99 100 88 88 88 86 77 50 34 22 21 25
59 56 52 31 11 16 17 16 15 18 19 25 32 39 38 41 44 48 54 70 87 98 100 100 99 95 93 93 96 100 99 98 92 90 92 87 85 84 86 79 23 25 29
63 59 54 31 11 17 18 17 16 20 22 30 38 41 42 48 55 61 94 100 100 99 98 100 100 99 99 99 94 94 96 98 93 90 90 93 86 90 88 86 43 30 31
65 62 54 27 13 18 19 18 19 22 27 36 43 45 49 55 84 99 100 100 100 100 99 99 99 100 100 100 100 100 95 96 90 87 90 96 91 90 83 72 86 69 35
66 62 52 21 14 19 21 19 21 26 37 45 52 60 66 67 90 100 100 100 100 100 95 99 97 94 97 98 97 100 99 98 97 96 89 94 90 100 97 91 92 87 62

GFSMA_850_rhum_129.txt.gz
RH
40 53 71 71 65 60 56 56 62 76 82 83 90 94 97 88 83 86 92 93 93 95 89 85 87 84 78 80 67 55 62 69 73 75 77 79 70 48 44 45 53 59 57
48 61 58 77 83 80 79 78 76 77 80 85 92 96 94 84 67 74 84 88 91 94 94 91 88 88 87 84 89 75 61 69 68 75 77 79 83 84 77 58 47 52 64
40 40 40 52 66 89 85 83 82 82 88 90 87 87 97 86 81 64 77 84 86 92 94 94 89 89 91 96 98 97 84 73 83 90 89 94 89 90 91 86 78 60 53
53 56 68 97 95 96 94 93 91 88 91 93 86 78 91 78 68 78 80 83 90 92 100 99 99 100 100 100 100 100 95 97 89 82 85 87 98 100 96 99 94 87 78
64 79 63 68 67 96 96 97 99 97 99 90 78 90 88 94 80 79 86 92 97 95 92 97 93 95 100 100 99 96 90 91 88 87 89 84 80 79 91 96 94 88 94
72 73 68 68 70 68 74 70 76 95 98 95 73 86 92 90 88 99 99 85 79 96 100 98 96 98 85 99 96 93 90 86 83 82 82 80 82 73 88 81 79 84 90
75 76 72 73 72 68 68 70 71 94 95 80 80 72 80 87 90 90 94 99 99 98 96 99 95 91 89 87 88 92 96 87 78 74 75 82 84 84 77 89 91 82 79
74 74 70 62 58 56 60 63 63 65 66 80 74 85 81 76 83 95 91 80 81 87 92 87 84 84 77 69 65 72 63 65 70 74 79 79 74 86 94 99 90 89 94
62 58 56 55 55 56 57 58 56 56 54 72 97 79 94 97 82 98 97 95 90 88 81 74 71 78 87 86 91 84 81 86 74 75 80 92 99 98 98 99 99 100 97
56 53 50 42 29 21 18 21 21 23 27 42 55 46 81 96 98 96 87 78 76 58 63 29 39 27 34 56 66 77 80 85 83 79 78 81 94 95 98 100 100 94 90
30 23 18 16 12 9 7 6 6 6 6 11 13 14 30 44 92 80 71 56 42 55 46 17 80 87 69 66 57 39 25 19 17 16 36 64 99 100 93 89 89 81 78
21 18 14 10 7 6 5 5 5 5 6 7 6 11 13 43 71 71 61 54 52 42 32 78 62 93 58 29 12 8 7 5 5 5 5 8 26 52 65 86 99 92 76
20 17 13 9 6 6 6 6 6 8 9 10 11 11 11 18 22 34 72 65 59 36 42 42 78 79 66 26 13 8 8 7 7 6 6 5 5 4 6 33 71 74 81
23 20 15 10 6 6 6 7 10 12 13 13 13 13 14 20 17 17 42 61 59 49 38 52 60 69 67 56 31 14 11 9 9 9 9 9 8 7 7 5 5 5 20
28 24 19 13 7 6 6 9 13 13 13 14 14 15 18 20 20 23 24 39 75 68 53 47 56 68 70 67 66 33 16 12 12 11 10 10 8 9 7 8 7 6 5
35 31 25 18 10 6 7 11 14 13 14 15 16 15 17 19 20 24 23 25 50 79 77 53 52 67 75 76 85 75 42 16 14 13 11 10 10 9 9 8 8 8 8
39 38 34 26 15 7 8 13 14 14 16 17 17 18 16 19 24 30 36 47 68 82 87 42 51 64 57 63 61 80 63 40 30 19 13 10 9 9 10 12 11 10 10
43 43 42 36 23 9 8 13 14 15 16 16 17 18 19 26 23 32 49 60 73 87 87 53 54 72 74 70 68 65 59 59 72 77 88 29 23 20 16 12 11 10 12
46 47 46 44 34 15 8 14 14 15 16 19 21 21 21 24 26 47 50 65 79 90 85 91 80 83 85 82 76 69 62 70 55 80 32 37 96 54 20 16 15 13 13
49 51 51 49 44 25 9 13 15 16 17 22 22 23 22 26 32 37 47 60 86 92 91 92 92 81 86 82 84 84 83 70 84 46 33 81 63 47 34 30 21 24 28
52 53 54 54 50 37 12 12 16 17 18 22 28 32 30 29 32 38 38 37 54 69 78 85 91 93 83 85 84 85 85 93 70 61 67 84 59 32 30 29 34 62 39
56 56 57 57 54 46 19 12 16 17 17 24 28 31 33 35 36 34 37 44 50 67 94 96 94 93 93 89 90 93 95 85 94 81 82 71 52 47 46 50 61 83 43
59 59 59 60 58 51 27 13 17 16 15 17 23 25 29 42 54 48 52 68 89 99 100 99 97 93 96 96 94 94 90 91 90 87 84 85 78 71 55 54 67 68 54
64 61 60 61 61 55 32 13 17 17 16 17 21 28 36 43 55 78 73 92 92 99 100 94 93 92 96 99 98 96 94 92 90 88 90 89 88 72 87 76 38 35 89
68 66 62 62 63 57 32 14 18 18 16 18 24 34 47 53 63 98 100 98 97 98 95 96 95 96 97 100 98 94 97 98 96 89 88 84 83 91 73 53 43 66 95
74 72 64 63 63 56 29 15 19 19 17 19 30 38 57 69 89 100 100 100 98 95 94 89 88 86 90 91 92 93 91 95 95 99 92 96 95 87 100 88 70 64 61

GFSMA_850_rhum_135.txt.gz
RH
28 33 36 40 45 55 64 62 65 65 65 64 56 60 72 79 91 81 80 75 69 68 72 78 86 93 96 96 93 92 78 53 55 58 69 80 83 81 79 65 52 49 52
35 34 34 34 43 44 44 56 64 66 68 72 70 60 59 57 68 73 81 85 76 72 61 70 78 81 83 94 99 97 93 89 69 69 66 75 84 85 86 87 85 78 64
39 43 46 54 53 57 54 59 58 63 67 77 74 68 56 68 82 68 75 77 87 84 95 86 90 80 76 92 94 79 97 100 98 97 91 80 82 84 85 88 89 90 93
50 52 56 58 60 60 57 59 54 53 59 56 58 55 74 91 94 92 99 96 97 97 98 96 98 98 96 98 96 92 81 85 85 89 99 99 97 86 91 93 95 88 99
63 61 59 57 61 64 61 60 62 60 60 58 52 56 66 81 91 91 90 87 90 87 92 90 97 99 92 94 89 93 79 80 66 58 76 96 99 100 98 96 87 85 91
68 64 64 62 59 56 52 54 59 61 58 55 51 72 72 83 81 82 86 88 87 88 88 87 87 88 95 93 87 84 97 74 99 77 80 77 83 77 93 87 86 89 89
66 68 64 60 53 51 52 53 54 51 38 34 45 54 91 90 83 78 89 87 83 79 75 71 81 87 82 77 81 79 80 85 96 100 96 97 97 97 91 91 96 92 96
63 60 56 53 50 44 33 29 32 25 19 12 18 42 52 84 82 87 93 87 72 67 66 62 50 34 31 37 47 65 84 92 97 100 98 88 80 77 88 97 98 99 100
58 56 52 45 28 16 11 9 7 6 6 7 9 15 41 72 28 89 99 85 68 61 56 52 29 22 23 27 38 48 56 60 67 76 87 92 99 100 100 93 94 92 89
43 35 26 16 13 9 7 6 6 7 7 7 9 8 18 47 66 47 41 80 27 31 18 27 21 32 56 51 46 31 22 13 10 12 50 83 80 98 99 99 99 99 99
18 16 16 13 11 8 6 6 7 7 8 10 12 13 11 11 31 80 72 28 14 15 22 21 43 59 59 56 61 48 22 12 8 10 83 99 96 59 30 60 87 98 100
18 18 16 14 12 9 6 6 8 8 11 14 15 14 14 14 15 21 22 15 15 16 19 48 56 82 79 77 62 50 35 16 12 10 42 98 90 23 9 13 8 8 22
20 21 20 18 15 11 7 7 8 9 14 15 14 14 14 15 16 20 21 20 22 14 18 36 76 71 66 61 59 44 26 17 20 26 70 86 56 18 10 12 11 24 10
24 26 26 24 20 16 10 7 7 9 15 15 14 15 15 15 14 16 19 22 21 18 22 52 58 59 58 56 53 42 26 19 18 16 34 90 67 17 11 15 19 17 14
26 28 30 31 29 24 18 11 8 9 14 14 14 15 15 14 13 14 16 21 28 36 34 44 52 48 45 34 22 24 28 31 27 26 21 38 28 12 10 9 12 12 10
29 32 34 35 36 34 30 22 13 8 12 15 14 15 15 14 14 13 15 20 26 37 46 32 30 32 30 32 35 44 46 42 39 35 30 40 72 31 22 74 76 47 15
31 34 37 39 41 41 40 36 27 14 9 14 14 15 15 14 14 13 15 18 23 35 41 24 29 34 41 41 42 44 52 55 55 48 44 37 34 28 42 97 93 33 18
31 34 38 41 44 46 47 46 41 30 15 11 14 15 16 16 16 16 18 19 23 36 47 37 33 38 48 46 50 54 57 66 73 69 58 49 37 25 42 62 30 22 23
34 34 36 39 44 47 50 51 50 44 30 13 13 15 16 18 19 21 23 25 29 37 46 55 36 35 42 44 46 56 60 70 66 62 59 53 46 50 50 35 28 23 20
61 43 38 38 42 46 50 53 54 53 46 27 13 15 16 18 20 21 21 24 28 34 39 43 42 39 44 44 60 69 66 64 63 57 51 46 49 53 53 44 36 32 27
80 75 57 45 43 46 50 53 56 57 54 40 16 15 17 19 22 23 22 25 35 40 41 44 47 52 54 70 86 86 80 79 66 57 55 51 50 42 39 40 38 35 32
82 84 79 67 52 49 52 53 55 57 58 51 32 15 17 18 22 27 32 32 39 48 51 76 72 80 80 95 93 90 90 88 84 71 82 57 55 47 45 43 42 40 36
85 89 87 80 73 60 56 56 55 57 60 57 38 18 17 19 21 26 30 38 52 59 88 93 98 90 91 86 90 90 90 90 90 84 87 77 56 53 53 51 46 43 41
87 91 93 90 83 79 66 62 58 58 61 89 41 21 19 20 23 29 32 33 38 49 67 77 87 78 90 90 95 95 96 97 97 86 84 78 58 61 59 53 47 43 42
76 87 94 96 92 88 81 70 66 68 67 88 89 30 21 20 20 27 39 41 43 52 70 88 90 96 100 100 100 99 93 90 96 88 71 88 77 82 69 57 50 49 49
59 69 82 93 96 93 87 79 72 87 62 68 100 28 23 22 22 30 49 70 82 68 90 91 86 89 93 92 91 87 80 95 94 86 85 95 98 100 98 79 74 69 57

GFSMA_850_rhum_138.txt.gz
RH
31 31 32 34 33 34 39 42 45 48 49 53 56 55 56 54 62 79 81 83 73 79 72 60 58 60 70 79 90 95 99 100 98 95 67 69 82 85 69 60 51 48 49
35 35 35 39 41 41 44 43 41 44 50 52 54 61 56 56 55 51 64 74 72 72 67 64 74 82 74 79 80 82 96 98 81 88 98 91 89 85 88 85 84 82 62
40 40 40 44 43 46 52 49 47 45 48 50 54 64 55 69 74 77 79 75 77 96 98 100 98 96 89 91 92 95 97 88 70 70 79 74 98 91 99 99 89 88 92
47 47 51 53 51 52 52 49 46 48 48 50 51 52 68 81 86 82 94 91 94 92 88 87 88 95 97 97 100 98 97 93 91 76 81 73 85 98 100 100 99 100 92
55 58 57 56 55 56 51 46 48 51 51 53 52 56 63 84 92 88 86 86 84 83 85 85 82 81 85 92 94 90 93 96 95 97 92 72 76 74 79 76 99 99 99
58 56 58 58 53 48 49 48 44 47 42 46 58 80 91 91 91 86 81 82 80 79 76 72 70 73 79 81 81 83 83 90 99 99 100 95 91 66 67 77 80 79 95
56 60 58 53 48 45 34 32 33 26 16 20 64 89 97 90 84 83 83 82 78 69 62 59 58 49 39 36 42 53 67 82 85 84 90 96 98 99 99 95 94 94 97
59 57 54 50 42 28 15 9 7 7 7 8 9 35 54 78 84 87 86 83 61 43 34 37 38 19 16 23 23 23 35 49 74 89 93 96 94 93 97 100 98 95 99
54 52 47 38 21 12 9 7 6 7 8 8 9 10 20 41 16 69 97 84 73 43 18 16 18 23 38 43 39 29 21 24 29 34 51 75 100 99 100 96 99 98 97
40 26 18 16 13 10 8 6 6 8 8 9 11 11 12 16 24 21 31 45 35 17 17 26 21 45 60 59 54 54 38 18 11 9 26 94 73 76 96 100 100 99 98
18 17 17 16 13 11 8 6 7 8 9 12 15 15 15 14 16 30 38 19 15 14 15 15 42 60 70 71 67 50 42 27 13 12 74 98 100 79 19 60 88 90 92
18 19 19 18 16 13 10 7 7 8 10 14 16 15 14 15 15 16 17 15 14 15 15 34 33 56 72 65 55 51 38 25 13 10 55 100 100 62 32 82 37 18 25
18 21 22 23 21 18 15 10 8 8 9 14 16 14 15 16 15 15 14 13 14 15 31 25 46 58 59 58 55 46 29 19 18 18 14 43 82 68 32 22 86 78 72
22 24 26 27 27 26 23 18 12 8 8 12 15 14 15 16 15 14 14 13 13 14 20 35 46 45 51 59 49 30 22 27 30 28 29 31 21 15 12 18 37 39 37
22 25 28 30 32 33 32 28 22 15 10 10 14 15 15 16 16 15 14 14 17 19 19 29 33 43 44 33 26 26 29 35 36 39 35 31 57 57 29 16 41 50 31
24 26 29 32 35 37 38 37 35 28 18 11 11 15 15 16 16 16 16 17 19 24 24 26 29 28 31 32 36 35 37 40 44 47 54 46 66 32 29 58 97 92 42
29 27 29 32 36 40 42 43 43 41 36 27 16 12 14 16 17 18 18 18 21 25 24 19 25 32 36 41 43 39 41 52 51 54 53 59 48 43 31 93 93 71 30
59 44 32 32 34 38 42 45 47 49 48 43 30 17 13 15 16 18 18 18 20 26 31 22 25 27 31 38 39 36 42 59 63 68 64 54 47 43 54 96 93 53 31
68 73 70 53 38 36 39 43 47 50 52 52 46 33 18 15 16 19 22 21 23 27 37 40 34 36 33 35 38 41 49 56 64 66 62 55 48 47 49 48 45 40 33
70 72 76 78 74 57 42 41 45 48 52 54 54 48 32 17 17 21 23 24 26 26 32 40 37 36 39 42 56 61 57 65 59 60 53 54 56 59 56 48 40 35 32
71 76 80 83 84 80 67 51 45 47 50 54 56 55 46 25 19 21 23 23 28 27 28 35 40 41 42 53 69 75 78 72 64 60 58 58 56 47 44 42 42 42 37
58 72 79 85 88 88 82 72 58 50 52 53 55 57 51 43 22 22 26 25 23 25 34 52 48 53 54 55 69 79 85 84 88 75 75 62 55 45 44 42 40 40 39
53 59 71 84 89 90 90 84 74 61 56 56 55 57 58 81 44 23 24 29 37 44 76 83 71 56 68 72 81 83 85 94 97 93 85 72 61 49 50 45 42 37 34
39 46 53 64 80 85 92 92 84 70 65 63 60 59 92 98 47 57 27 29 29 32 41 61 67 68 77 80 92 93 99 98 93 89 78 89 66 58 54 42 36 32 35
44 48 52 57 69 77 91 96 89 80 73 78 77 86 99 84 100 44 32 29 28 27 42 56 70 82 98 100 100 97 99 98 91 71 79 83 61 67 59 42 34 33 39
49 51 53 58 65 71 82 93 95 88 83 77 84 83 75 97 100 33 33 33 38 27 51 67 79 83 90 91 100 99 98 100 85 89 75 77 82 88 92 66 49 53 46

GFSMA_850_rhum_141.txt.gz
RH
34 32 30 30 31 31 31 33 35 36 38 43 46 45 48 51 47 47 56 68 74 73 68 70 73 92 86 73 77 75 81 91 85 83 77 96 98 84 90 95 84 54 47
36 36 35 38 41 40 41 42 41 41 43 47 49 53 64 54 65 70 73 74 79 75 79 85 91 85 87 85 90 90 97 99 89 70 67 86 85 71 63 91 97 79 63
44 45 44 45 45 45 45 48 48 48 50 51 49 56 57 76 80 86 86 93 90 94 95 87 90 88 91 91 96 96 97 93 84 78 66 77 83 82 81 69 99 99 87
51 52 53 51 49 47 46 44 42 49 49 49 49 53 67 80 87 86 88 88 87 83 86 81 82 84 85 87 95 98 95 94 92 91 86 77 73 80 75 78 92 97 100
57 54 52 52 50 46 42 42 41 42 43 46 49 59 73 86 87 85 82 82 81 80 78 74 71 71 76 80 82 80 78 90 98 97 97 91 85 97 96 77 75 74 80
57 54 56 52 48 44 40 35 29 25 19 39 63 83 92 89 90 87 82 84 81 76 66 57 55 53 44 40 43 52 62 75 86 86 95 96 98 98 94 91 82 78 71
58 58 54 51 46 38 22 10 8 8 8 25 70 95 96 91 89 88 86 80 70 48 25 17 20 19 13 12 15 21 26 33 50 86 93 98 99 99 93 97 95 96 100
57 54 53 48 38 19 11 8 7 7 8 10 13 61 81 82 97 82 69 75 57 50 39 14 14 14 14 14 18 21 19 19 26 57 99 100 99 98 97 100 100 99 99
46 39 32 24 16 12 9 7 6 7 9 10 10 11 19 32 39 41 70 79 55 30 16 15 17 16 16 21 30 35 38 28 14 12 76 98 97 92 99 100 100 100 100
36 20 15 15 14 12 10 8 7 7 9 10 13 14 14 15 18 21 29 43 34 16 14 13 13 16 24 29 37 42 37 32 23 17 16 88 99 79 57 99 99 100 100
26 18 18 18 16 14 12 10 8 7 9 11 14 16 15 15 16 24 25 23 17 14 12 13 26 32 39 45 43 38 34 28 18 12 20 93 94 74 24 29 74 91 98
20 18 19 20 20 19 17 14 10 8 8 10 14 16 15 15 16 18 19 18 17 16 12 16 19 25 48 59 51 43 34 22 14 14 16 96 96 67 14 15 53 51 26
18 19 21 24 25 26 24 21 17 13 9 9 12 16 16 16 16 16 16 15 16 17 17 16 19 33 40 42 42 37 22 17 18 22 27 87 82 57 14 13 41 91 56
21 21 23 26 29 31 31 30 27 21 15 11 10 13 16 16 17 17 16 16 15 15 19 17 22 34 30 39 45 24 21 21 22 24 27 34 31 29 23 13 14 24 37
30 24 24 26 30 33 35 36 36 34 30 24 16 12 13 16 16 17 17 16 17 20 17 21 23 25 32 30 27 27 28 29 31 32 31 30 32 62 44 31 46 59 60
43 35 29 27 29 33 36 39 40 41 41 39 33 25 16 15 17 19 21 21 20 22 21 20 24 24 24 24 26 28 31 30 34 45 48 49 43 32 31 31 100 100 77
56 56 52 41 32 31 34 37 41 44 45 46 43 36 28 18 16 18 22 24 24 26 24 16 17 20 23 25 26 24 28 30 32 42 52 56 53 49 42 35 75 92 91
66 67 70 72 69 55 39 35 37 41 45 48 49 48 45 30 22 19 20 23 26 28 30 22 18 18 23 25 27 27 30 32 36 46 56 58 54 49 49 88 80 44 27
57 65 73 75 75 76 77 65 46 40 41 46 49 51 52 45 38 24 20 22 28 33 37 33 22 21 24 30 31 33 37 40 49 57 58 57 52 51 54 91 60 48 38
47 51 59 69 77 82 84 83 77 64 48 44 46 49 53 54 51 37 24 21 26 32 36 38 34 29 31 35 44 47 42 49 50 56 58 54 59 59 58 53 44 40 38
41 46 50 55 63 72 78 84 87 82 70 57 48 49 51 54 55 51 36 32 22 24 32 43 46 42 37 41 53 57 60 54 48 60 60 63 67 61 56 50 44 40 38
38 40 43 52 58 66 74 85 90 90 82 69 61 54 53 54 55 56 48 84 31 24 30 44 48 51 41 48 55 67 72 68 76 68 81 76 73 53 51 49 46 44 42
33 34 35 39 46 52 64 81 90 95 92 83 73 65 59 58 56 57 59 98 64 35 56 63 71 52 61 52 67 77 79 83 87 93 97 85 75 54 52 49 46 45 41
42 42 42 45 49 47 56 67 81 96 95 88 84 77 67 64 61 61 98 99 86 67 34 44 52 46 52 63 76 87 85 94 93 88 96 92 66 57 54 48 46 39 28
42 44 46 47 51 48 56 64 75 88 94 89 89 85 76 75 75 88 97 98 99 76 32 29 39 51 61 71 89 97 96 100 98 96 99 91 62 65 59 50 42 33 31
49 49 48 48 49 48 50 60 74 86 89 88 90 88 83 76 75 95 98 98 99 71 31 28 44 63 77 92 93 97 96 98 100 97 88 75 72 81 82 61 44 46 47